M I D A S
Marine Information and Data Acquisition System
Tripno 1807 of the Zeeleeuw from 2009-11-16 07:53:23 to 2009-11-16 16:18:57
Back to CruiseResearch ActivitiesStationsMapUnderway DataData graphs

EquipmentUnitsComment
TimeDGPSUTC
LatitudeDGPSDM.mWGS84
LongitudeDGPSDM.mWGS84
TemperatureSBE03/SBE38deg celciusITS90
ConductivitySBE21S/mITS90
SalinitySBE21 Practical Salinity Units
ChlorophylAChelsea fluorimeterg/lCalibrated in Aceton
Missing or incorrect values are displayed as -999
Sea surface data collected by the RV Zeeleeuw from 2009-11-16 07:36:09 to 2009-11-16 16:26:54
                                                                                    Next 1000 lines
Time Latitude Longitude Temperature Conductivity Salinity ChlorophylA
2009-11-16 07:36:20 51°13.662 2°55.954 17.2726 0.000943 0.011918 -1.070216
2009-11-16 07:36:25 51°13.663 2°55.951 17.2733 0.000943 0.011918 -1.070216
2009-11-16 07:36:29 51°13.664 2°55.947 17.2722 0.000943 0.011918 -1.070216
2009-11-16 07:36:35 51°13.665 2°55.943 17.2698 0.000943 0.011918 -1.070216
2009-11-16 07:36:41 51°13.667 2°55.937 17.2724 0.000943 0.011918 -1.070216
2009-11-16 07:36:47 51°13.668 2°55.931 17.2744 0.000943 0.011918 -1.070216
2009-11-16 07:36:52 51°13.67 2°55.925 17.2736 0.000943 0.011918 -1.070216
2009-11-16 07:36:58 51°13.671 2°55.918 17.2747 0.000943 0.011917 -1.070216
2009-11-16 07:37:04 51°13.673 2°55.911 17.2736 0.000943 0.011917 -1.070216
2009-11-16 07:37:08 51°13.674 2°55.907 17.2724 0.000943 0.011917 -1.070216
2009-11-16 07:37:13 51°13.675 2°55.9 17.2726 0.000943 0.011917 -1.070216
2009-11-16 07:37:19 51°13.677 2°55.893 17.2711 0.000943 0.011917 -1.070216
2009-11-16 07:37:24 51°13.678 2°55.886 17.2685 0.000943 0.011916 -1.070216
2009-11-16 07:37:28 51°13.679 2°55.881 17.2668 0.000943 0.011916 -1.070216
2009-11-16 07:37:33 51°13.68 2°55.874 17.2667 0.000943 0.011916 -1.070216
2009-11-16 07:37:39 51°13.681 2°55.866 17.267 0.000943 0.011916 -1.070216
2009-11-16 07:37:44 51°13.682 2°55.859 17.2722 0.000943 0.011916 -1.070216
2009-11-16 07:37:48 51°13.683 2°55.853 17.2748 0.000943 0.011916 -1.070216
2009-11-16 07:37:53 51°13.684 2°55.846 17.2655 0.000943 0.011916 -1.070216
2009-11-16 07:37:59 51°13.685 2°55.838 17.2623 0.000943 0.011916 -1.070216
2009-11-16 07:38:04 51°13.686 2°55.831 17.2631 0.000943 0.011916 -1.070216
2009-11-16 07:38:09 51°13.687 2°55.824 17.2628 0.000943 0.011916 -1.070216
2009-11-16 07:38:13 51°13.687 2°55.818 17.2643 0.000943 0.011915 -1.070216
2009-11-16 07:38:19 51°13.688 2°55.81 17.2668 0.000943 0.011915 -1.070216
2009-11-16 07:38:24 51°13.688 2°55.803 17.2713 0.000943 0.011915 -1.070216
2009-11-16 07:38:28 51°13.688 2°55.797 17.2715 0.000943 0.011915 -1.070216
2009-11-16 07:38:33 51°13.688 2°55.79 17.2719 0.000943 0.011915 -1.070216
2009-11-16 07:38:39 51°13.688 2°55.782 17.2739 0.000943 0.011915 -1.070216
2009-11-16 07:38:44 51°13.688 2°55.776 17.2744 0.000943 0.011914 -1.070216
2009-11-16 07:38:48 51°13.688 2°55.771 17.276 0.000943 0.011914 -1.070216
2009-11-16 07:38:53 51°13.687 2°55.765 17.2766 0.000943 0.011914 -1.070216
2009-11-16 07:38:59 51°13.687 2°55.759 17.2784 0.000943 0.011914 -1.070216
2009-11-16 07:39:04 51°13.686 2°55.754 17.2857 0.000943 0.011914 -1.070216
2009-11-16 07:39:08 51°13.686 2°55.751 17.2845 0.000943 0.011914 -1.070216
2009-11-16 07:39:13 51°13.686 2°55.747 17.2817 0.000943 0.011913 -1.070216
2009-11-16 07:39:18 51°13.686 2°55.745 17.2797 0.000943 0.011913 -1.070216
2009-11-16 07:39:23 51°13.686 2°55.743 17.2785 0.000943 0.011913 -1.070216
2009-11-16 07:39:28 51°13.686 2°55.742 17.2776 0.00084 0.011481 -1.070216
2009-11-16 07:39:32 51°13.687 2°55.742 17.2823 0.00084 0.011481 -1.070216
2009-11-16 07:39:37 51°13.687 2°55.741 17.2845 0.00084 0.011481 -1.070216
2009-11-16 07:39:42 51°13.688 2°55.741 17.2862 0.000943 0.011913 -1.070216
2009-11-16 07:39:47 51°13.689 2°55.741 17.2889 0.00084 0.01148 -1.070216
2009-11-16 07:39:52 51°13.691 2°55.741 17.2943 0.00084 0.01148 -1.070216
2009-11-16 07:39:57 51°13.692 2°55.741 17.2912 0.00084 0.01148 -1.070216
2009-11-16 07:40:01 51°13.693 2°55.741 17.2961 0.00084 0.01148 -1.070216
2009-11-16 07:40:06 51°13.694 2°55.742 17.2968 0.00084 0.01148 -1.070216
2009-11-16 07:40:11 51°13.696 2°55.741 17.2983 0.00084 0.01148 -1.070216
2009-11-16 07:40:16 51°13.698 2°55.741 17.2918 0.00084 0.011479 -1.070216
2009-11-16 07:40:21 51°13.7 2°55.741 17.2887 0.00084 0.011479 -1.070216
2009-11-16 07:40:26 51°13.703 2°55.74 17.2879 0.00084 0.011479 -1.070216
2009-11-16 07:40:31 51°13.706 2°55.739 17.2986 0.00084 0.011479 -1.070216
2009-11-16 07:40:36 51°13.709 2°55.738 17.2973 0.00084 0.011479 -1.070216
2009-11-16 07:40:40 51°13.712 2°55.737 17.2955 0.00084 0.011478 -1.070216
2009-11-16 07:40:45 51°13.716 2°55.735 17.2926 0.00084 0.011478 -1.070216
2009-11-16 07:40:50 51°13.72 2°55.732 17.293 0.00084 0.011478 -1.070216
2009-11-16 07:40:55 51°13.724 2°55.729 17.2911 0.00084 0.011478 -1.070216
2009-11-16 07:41:00 51°13.729 2°55.725 17.2939 0.00084 0.011478 -1.070216
2009-11-16 07:41:05 51°13.734 2°55.72 17.2944 0.00084 0.011478 -1.070216
2009-11-16 07:41:10 51°13.74 2°55.715 17.2997 0.00084 0.011477 -1.070216
2009-11-16 07:41:15 51°13.746 2°55.709 17.2924 0.00084 0.011477 -1.070216
2009-11-16 07:41:20 51°13.753 2°55.703 17.2935 0.00084 0.011477 -1.070216
2009-11-16 07:41:25 51°13.759 2°55.696 17.2928 0.00084 0.011477 -1.070216
2009-11-16 07:41:30 51°13.766 2°55.689 17.2928 0.00084 0.011477 -1.070216
2009-11-16 07:41:35 51°13.774 2°55.682 17.2907 0.00084 0.011477 -1.070216
2009-11-16 07:41:40 51°13.781 2°55.675 17.2913 0.00084 0.011477 -1.070216
2009-11-16 07:41:45 51°13.789 2°55.668 17.292 0.00084 0.011477 -1.035392
2009-11-16 07:41:49 51°13.796 2°55.663 17.2888 0.00084 0.011476 -1.035392
2009-11-16 07:41:55 51°13.806 2°55.655 17.296 0.00084 0.011476 -1.070216
2009-11-16 07:42:00 51°13.814 2°55.648 17.2891 0.00084 0.011476 -1.035392
2009-11-16 07:42:05 51°13.823 2°55.641 17.2946 0.00084 0.011476 -1.035392
2009-11-16 07:42:09 51°13.83 2°55.636 17.2917 0.00084 0.011476 -1.035392
2009-11-16 07:42:15 51°13.842 2°55.628 17.297 0.00084 0.011476 -1.035392
2009-11-16 07:42:20 51°13.851 2°55.621 17.2915 0.00084 0.011475 -1.035392
2009-11-16 07:42:25 51°13.861 2°55.614 17.2899 0.00084 0.011475 -1.035392
2009-11-16 07:42:30 51°13.871 2°55.607 17.2954 0.00084 0.011475 -1.035392
2009-11-16 07:42:35 51°13.881 2°55.6 17.2895 0.00084 0.011475 -1.035392
2009-11-16 07:42:40 51°13.891 2°55.593 17.2867 0.00084 0.011475 -1.070216
2009-11-16 07:42:45 51°13.901 2°55.587 17.2892 0.00084 0.011475 -1.035392
2009-11-16 07:42:50 51°13.911 2°55.579 17.2827 0.00084 0.011475 -1.035392
2009-11-16 07:42:55 51°13.922 2°55.572 17.2826 0.00084 0.011474 -1.035392
2009-11-16 07:43:00 51°13.933 2°55.565 17.2851 0.00084 0.011474 -1.035392
2009-11-16 07:43:05 51°13.943 2°55.558 17.285 0.00084 0.011474 -1.035392
2009-11-16 07:43:09 51°13.952 2°55.552 17.288 0.00084 0.011474 -1.070216
2009-11-16 07:43:15 51°13.965 2°55.543 17.2887 0.00084 0.011474 -1.070216
2009-11-16 07:43:20 51°13.976 2°55.535 17.2891 0.00084 0.011474 -1.070216
2009-11-16 07:43:25 51°13.986 2°55.528 17.2875 0.00084 0.011474 -1.035392
2009-11-16 07:43:30 51°13.997 2°55.52 17.2868 0.00084 0.011474 -1.070216
2009-11-16 07:43:35 51°14.008 2°55.512 17.2834 0.00084 0.011474 -1.070216
2009-11-16 07:43:40 51°14.019 2°55.504 17.2887 0.00084 0.011473 -1.070216
2009-11-16 07:43:45 51°14.03 2°55.497 17.2887 0.00084 0.011473 -1.070216
2009-11-16 07:43:49 51°14.039 2°55.49 17.2903 0.00084 0.011473 -1.070216
2009-11-16 07:43:55 51°14.052 2°55.481 17.2925 0.00084 0.011473 -1.070216
2009-11-16 07:44:00 51°14.064 2°55.473 17.2903 0.00084 0.011473 -1.035392
2009-11-16 07:44:05 51°14.075 2°55.465 17.2904 0.00084 0.011473 -1.035392
2009-11-16 07:44:10 51°14.086 2°55.457 17.2848 0.00084 0.011473 -1.035392
2009-11-16 07:44:15 51°14.097 2°55.449 17.2871 0.00084 0.011472 -1.035392
2009-11-16 07:44:20 51°14.109 2°55.44 17.2906 0.00084 0.011472 -1.035392
2009-11-16 07:44:25 51°14.12 2°55.431 17.2882 0.00084 0.011472 -1.035392
2009-11-16 07:44:29 51°14.129 2°55.424 17.2913 0.00084 0.011472 -1.070216
2009-11-16 07:44:35 51°14.142 2°55.413 17.2955 0.00084 0.011472 -1.070216
2009-11-16 07:44:40 51°14.153 2°55.404 17.3025 0.00084 0.011472 -1.035392
2009-11-16 07:44:45 51°14.164 2°55.394 17.2961 0.00084 0.011472 -1.035392
2009-11-16 07:44:49 51°14.173 2°55.385 17.2991 0.00084 0.011471 -1.035392
2009-11-16 07:44:55 51°14.186 2°55.373 17.2937 0.00084 0.011471 -1.035392
2009-11-16 07:45:00 51°14.196 2°55.361 17.2877 0.00084 0.011471 -1.035392
2009-11-16 07:45:05 51°14.207 2°55.349 17.2905 0.00084 0.011471 -1.035392
2009-11-16 07:45:10 51°14.217 2°55.337 17.2978 0.00084 0.011471 -1.035392
2009-11-16 07:45:15 51°14.227 2°55.324 17.3034 0.00084 0.011471 -1.035392
2009-11-16 07:45:20 51°14.237 2°55.311 17.3032 0.00084 0.011471 -1.035392
2009-11-16 07:45:25 51°14.247 2°55.297 17.3089 0.00084 0.01147 -1.035392
2009-11-16 07:45:30 51°14.256 2°55.283 17.2918 0.00084 0.01147 -1.035392
2009-11-16 07:45:35 51°14.264 2°55.267 17.2908 0.00084 0.01147 -1.035392
2009-11-16 07:45:40 51°14.273 2°55.252 17.2827 0.00084 0.01147 -1.070216
2009-11-16 07:45:45 51°14.281 2°55.236 17.293 0.00084 0.01147 -1.035392
2009-11-16 07:45:49 51°14.287 2°55.223 17.2991 0.00084 0.01147 -1.035392
2009-11-16 07:45:55 51°14.298 2°55.203 17.2993 0.00084 0.01147 -1.035392
2009-11-16 07:46:00 51°14.306 2°55.186 17.2908 0.00084 0.01147 -1.035392
2009-11-16 07:46:05 51°14.313 2°55.169 17.3099 0.00084 0.01147 -1.035392
2009-11-16 07:46:10 51°14.321 2°55.151 17.3121 0.00084 0.011469 -1.035392
2009-11-16 07:46:15 51°14.328 2°55.132 17.3109 0.00084 0.011469 -1.035392
2009-11-16 07:46:20 51°14.334 2°55.113 17.3118 0.00084 0.011469 -1.035392
2009-11-16 07:46:25 51°14.34 2°55.093 17.3087 0.00084 0.011469 -1.035392
2009-11-16 07:46:29 51°14.344 2°55.076 17.307 0.00084 0.011469 -1.035392
2009-11-16 07:46:35 51°14.349 2°55.051 17.2992 0.00084 0.011469 -1.035392
2009-11-16 07:46:40 51°14.353 2°55.03 17.279 0.00084 0.011469 -1.035392
2009-11-16 07:46:45 51°14.358 2°55.008 17.2884 0.00084 0.011469 -1.035392
2009-11-16 07:46:50 51°14.362 2°54.987 17.2968 0.00084 0.011469 -1.035392
2009-11-16 07:46:55 51°14.367 2°54.965 17.2957 0.00084 0.011468 -1.035392
2009-11-16 07:47:00 51°14.371 2°54.943 17.2851 0.00084 0.011468 -1.035392
2009-11-16 07:47:05 51°14.375 2°54.921 17.2965 0.00084 0.011468 -1.035392
2009-11-16 07:47:09 51°14.378 2°54.903 17.2899 0.00084 0.011468 -1.035392
2009-11-16 07:47:15 51°14.382 2°54.875 17.2788 0.00084 0.011468 -1.035392
2009-11-16 07:47:20 51°14.386 2°54.852 17.2896 0.00084 0.011468 -1.035392
2009-11-16 07:47:25 51°14.389 2°54.828 17.2903 0.00084 0.011468 -1.035392
2009-11-16 07:47:29 51°14.392 2°54.809 17.2961 0.00084 0.011467 -1.035392
2009-11-16 07:47:35 51°14.396 2°54.78 17.2964 0.00084 0.011467 -1.035392
2009-11-16 07:47:40 51°14.4 2°54.756 17.2924 0.00084 0.011467 -1.035392
2009-11-16 07:47:45 51°14.403 2°54.731 17.2909 0.00084 0.011467 -1.035392
2009-11-16 07:47:50 51°14.407 2°54.707 17.3077 0.00084 0.011467 -1.035392
2009-11-16 07:47:55 51°14.41 2°54.682 17.3209 0.00084 0.011466 -1.035392
2009-11-16 07:48:00 51°14.413 2°54.657 17.285 0.00084 0.011466 -1.035392
2009-11-16 07:48:05 51°14.414 2°54.632 17.3137 0.00084 0.011466 -1.035392
2009-11-16 07:48:10 51°14.415 2°54.607 17.306 0.00084 0.011466 -1.035392
2009-11-16 07:48:15 51°14.415 2°54.582 17.2908 0.00084 0.011466 -1.035392
2009-11-16 07:48:20 51°14.415 2°54.556 17.3089 0.00084 0.011466 -1.035392
2009-11-16 07:48:25 51°14.413 2°54.531 17.2941 0.00084 0.011465 -1.035392
2009-11-16 07:48:30 51°14.411 2°54.505 17.3113 0.00084 0.011465 -1.035392
2009-11-16 07:48:35 51°14.408 2°54.48 17.3091 0.00084 0.011465 -1.035392
2009-11-16 07:48:40 51°14.404 2°54.456 17.2839 0.00084 0.011465 -1.035392
2009-11-16 07:48:45 51°14.4 2°54.431 17.3114 0.00084 0.011465 -1.035392
2009-11-16 07:48:50 51°14.394 2°54.407 17.2901 0.00084 0.011465 -1.035392
2009-11-16 07:48:55 51°14.388 2°54.383 17.2975 0.00084 0.011464 -1.035392
2009-11-16 07:49:00 51°14.382 2°54.359 17.2856 0.00084 0.011464 -1.035392
2009-11-16 07:49:05 51°14.375 2°54.335 17.2992 0.00084 0.011464 -1.035392
2009-11-16 07:49:10 51°14.368 2°54.312 17.2945 0.00084 0.011464 -1.035392
2009-11-16 07:49:15 51°14.361 2°54.288 17.2893 0.00084 0.011464 -1.035392
2009-11-16 07:49:20 51°14.354 2°54.265 15.2726 0.00084 0.011463 -1.035392
2009-11-16 07:49:25 51°14.346 2°54.242 14.3792 0.00084 0.01145 -1.035392
2009-11-16 07:49:30 51°14.338 2°54.219 13.5545 0.00084 0.011444 -1.070216
2009-11-16 07:49:35 51°14.33 2°54.196 12.882 0.00084 0.011444 -1.070216
2009-11-16 07:49:40 51°14.322 2°54.174 12.7195 0.247643 1.493951 -0.965744
2009-11-16 07:49:45 51°14.313 2°54.151 12.4553 0.446039 2.783139 -0.965744
2009-11-16 07:49:49 51°14.307 2°54.132 12.281 1.880382 13.265807 -1.139864
2009-11-16 07:49:55 51°14.297 2°54.105 12.164 1.719544 12.220303 -1.174688
2009-11-16 07:50:00 51°14.289 2°54.081 12.1107 1.928716 14.174825 -1.10504
2009-11-16 07:50:05 51°14.281 2°54.058 11.9929 1.928716 14.174825 -1.10504
2009-11-16 07:50:10 51°14.273 2°54.035 11.9592 2.601323 20.11837 -1.035392
2009-11-16 07:50:15 51°14.265 2°54.012 11.9713 3.445039 27.999621 -1.000568
2009-11-16 07:50:20 51°14.257 2°53.989 11.8713 3.712693 30.831603 -0.965744
2009-11-16 07:50:25 51°14.25 2°53.965 11.8697 3.797595 31.992781 -0.965744
2009-11-16 07:50:30 51°14.241 2°53.942 11.8442 3.817917 32.391592 -0.965744
2009-11-16 07:50:35 51°14.234 2°53.919 11.8293 3.817917 32.391592 -0.965744
2009-11-16 07:50:40 51°14.226 2°53.895 11.8118 3.829739 32.697239 -0.965744
2009-11-16 07:50:45 51°14.218 2°53.872 11.7552 3.839693 32.908176 -0.965744
2009-11-16 07:50:50 51°14.21 2°53.849 11.7624 3.841561 33.054617 -0.965744
2009-11-16 07:50:55 51°14.202 2°53.826 11.7776 3.842496 33.141279 -0.965744
2009-11-16 07:51:00 51°14.194 2°53.803 11.8077 3.845399 33.235065 -0.93092
2009-11-16 07:51:05 51°14.186 2°53.779 11.8051 3.845399 33.235065 -0.93092
2009-11-16 07:51:10 51°14.178 2°53.756 11.7361 3.846748 33.293429 -0.93092
2009-11-16 07:51:15 51°14.17 2°53.733 11.7281 3.846956 33.333997 -0.93092
2009-11-16 07:51:20 51°14.162 2°53.709 11.726 3.847889 33.38323 -0.93092
2009-11-16 07:51:25 51°14.155 2°53.685 11.7352 3.848823 33.413184 -0.93092
2009-11-16 07:51:30 51°14.148 2°53.662 11.7118 3.848616 33.429031 -0.965744
2009-11-16 07:51:35 51°14.14 2°53.638 11.7164 3.848616 33.429031 -0.965744
2009-11-16 07:51:40 51°14.132 2°53.615 11.7163 3.848823 33.435699 -0.965744
2009-11-16 07:51:45 51°14.124 2°53.592 11.7283 3.850586 33.473764 -0.93092
2009-11-16 07:51:50 51°14.116 2°53.568 11.7011 3.851934 33.506301 -0.965744
2009-11-16 07:51:55 51°14.109 2°53.545 11.7085 3.852764 33.528385 -0.965744
2009-11-16 07:52:00 51°14.101 2°53.521 11.6796 3.853801 33.546251 -0.93092
2009-11-16 07:52:05 51°14.094 2°53.497 11.6959 3.853801 33.546251 -0.93092
2009-11-16 07:52:10 51°14.086 2°53.473 11.6922 3.855149 33.570272 -0.965744
2009-11-16 07:52:15 51°14.079 2°53.45 11.705 3.855978 33.589277 -0.965744
2009-11-16 07:52:20 51°14.071 2°53.426 11.6969 3.857223 33.604489 -0.93092
2009-11-16 07:52:25 51°14.064 2°53.402 11.6884 3.857741 33.61579 -0.93092
2009-11-16 07:52:30 51°14.057 2°53.378 11.6954 3.858674 33.635831 -0.93092
2009-11-16 07:52:35 51°14.049 2°53.355 11.6879 3.858674 33.635831 -0.93092
2009-11-16 07:52:40 51°14.042 2°53.331 11.6866 3.859193 33.651855 -0.965744
2009-11-16 07:52:45 51°14.035 2°53.307 11.6888 3.860333 33.665296 -0.965744
2009-11-16 07:52:50 51°14.028 2°53.283 11.6961 3.859504 33.660376 -0.965744
2009-11-16 07:52:55 51°14.02 2°53.259 11.6886 3.86137 33.680876 -0.965744
2009-11-16 07:53:00 51°14.012 2°53.235 11.6848 3.861474 33.685028 -0.965744
2009-11-16 07:53:05 51°14.005 2°53.211 11.6854 3.861474 33.685028 -0.965744
2009-11-16 07:53:10 51°13.998 2°53.187 11.6819 3.862407 33.697247 -0.965744
2009-11-16 07:53:15 51°13.991 2°53.163 11.6788 3.862407 33.703541 -0.965744
2009-11-16 07:53:20 51°13.983 2°53.139 11.6784 3.863029 33.711953 -0.965744
2009-11-16 07:53:25 51°13.977 2°53.115 11.6864 3.864066 33.722826 -0.965744
2009-11-16 07:53:29 51°13.971 2°53.096 11.6866 3.863859 33.723171 -0.965744
2009-11-16 07:53:35 51°13.962 2°53.067 11.69 3.863859 33.723171 -0.965744
2009-11-16 07:53:40 51°13.955 2°53.044 11.6882 3.864792 33.7354 -0.965744
2009-11-16 07:53:45 51°13.947 2°53.02 11.6871 3.864792 33.736188 -0.965744
2009-11-16 07:53:50 51°13.94 2°52.996 11.688 3.865103 33.742367 -0.965744
2009-11-16 07:53:55 51°13.933 2°52.971 11.6847 3.865103 33.74552 -0.965744
2009-11-16 07:54:00 51°13.926 2°52.947 11.6909 3.865207 33.745741 -0.965744
2009-11-16 07:54:05 51°13.919 2°52.923 11.6934 3.865207 33.745741 -0.965744
2009-11-16 07:54:09 51°13.913 2°52.904 11.6913 3.865518 33.747979 -0.965744
2009-11-16 07:54:15 51°13.905 2°52.875 11.6913 3.865725 33.752363 -0.965744
2009-11-16 07:54:20 51°13.898 2°52.851 11.6937 3.867488 33.770307 -0.965744
2009-11-16 07:54:25 51°13.89 2°52.828 11.6931 3.819381 33.304092 -0.965744
2009-11-16 07:54:30 51°13.883 2°52.804 11.6965 3.869043 33.787814 -0.965744
2009-11-16 07:54:35 51°13.876 2°52.78 11.6963 3.869043 33.787814 -0.965744
2009-11-16 07:54:40 51°13.869 2°52.756 11.6976 3.867903 33.775133 -0.965744
2009-11-16 07:54:45 51°13.861 2°52.732 11.6976 3.868629 33.782198 -1.000568
2009-11-16 07:54:49 51°13.856 2°52.712 11.7004 3.869147 33.787244 -0.965744
2009-11-16 07:54:55 51°13.847 2°52.683 11.6997 3.869873 33.794309 -1.000568
2009-11-16 07:55:00 51°13.84 2°52.659 11.7009 3.869873 33.794309 -1.000568
2009-11-16 07:55:05 51°13.832 2°52.636 11.7036 3.869873 33.794309 -1.000568
2009-11-16 07:55:10 51°13.824 2°52.613 11.699 3.870598 33.800585 -0.965744
2009-11-16 07:55:15 51°13.816 2°52.589 11.6985 3.869562 33.789703 -1.000568
2009-11-16 07:55:20 51°13.808 2°52.566 11.7039 3.87205 33.813137 -0.965744
2009-11-16 07:55:25 51°13.8 2°52.543 11.7086 3.870495 33.797997 -1.000568
2009-11-16 07:55:29 51°13.794 2°52.524 11.7044 3.869976 33.79374 -1.000568
2009-11-16 07:55:35 51°13.783 2°52.497 11.7161 3.869976 33.79374 -1.000568
2009-11-16 07:55:40 51°13.775 2°52.474 11.7091 3.869354 33.786895 -1.000568
2009-11-16 07:55:45 51°13.767 2°52.451 11.7122 3.870702 33.800015 -1.000568
2009-11-16 07:55:50 51°13.758 2°52.428 11.7124 3.87205 33.813927 -1.000568
2009-11-16 07:55:55 51°13.75 2°52.405 11.7191 3.872983 33.821431 -1.000568
2009-11-16 07:56:00 51°13.742 2°52.381 11.7234 3.872154 33.811776 -1.000568
2009-11-16 07:56:05 51°13.733 2°52.358 11.7191 3.872154 33.811776 -1.000568
2009-11-16 07:56:09 51°13.727 2°52.34 11.7194 3.871428 33.803922 -1.000568
2009-11-16 07:56:15 51°13.716 2°52.312 11.7203 3.874227 33.828012 -1.000568
2009-11-16 07:56:20 51°13.708 2°52.289 11.7227 3.873502 33.820158 -1.000568
2009-11-16 07:56:25 51°13.7 2°52.266 11.7186 3.872776 33.812304 -1.000568
2009-11-16 07:56:30 51°13.691 2°52.242 11.7244 3.873813 33.820026 -1.000568
2009-11-16 07:56:35 51°13.683 2°52.219 11.7263 3.873813 33.820026 -1.000568
2009-11-16 07:56:40 51°13.674 2°52.195 11.7265 3.873398 33.813621 -1.000568
2009-11-16 07:56:45 51°13.665 2°52.172 11.7335 3.872983 33.810374 -1.000568
2009-11-16 07:56:50 51°13.657 2°52.148 11.7266 3.874642 33.826519 -1.000568
2009-11-16 07:56:55 51°13.649 2°52.124 11.7261 3.871428 33.795239 -1.000568
2009-11-16 07:57:00 51°13.64 2°52.101 11.7229 3.874124 33.820684 -1.000568
2009-11-16 07:57:05 51°13.631 2°52.077 11.7261 3.874124 33.820684 -1.000568
2009-11-16 07:57:09 51°13.625 2°52.058 11.7295 3.873398 33.812831 -1.000568
2009-11-16 07:57:15 51°13.614 2°52.03 11.7321 3.871531 33.792303 -1.000568
2009-11-16 07:57:20 51°13.605 2°52.006 11.7293 3.873916 33.815508 -1.000568
2009-11-16 07:57:25 51°13.597 2°51.982 11.7296 3.874953 33.824808 -1.000568
2009-11-16 07:57:30 51°13.588 2°51.958 11.7275 3.872776 33.80362 -1.000568
2009-11-16 07:57:35 51°13.58 2°51.935 11.7378 3.872776 33.80362 -1.000568
2009-11-16 07:57:40 51°13.571 2°51.911 11.731 3.876923 33.84556 -1.000568
2009-11-16 07:57:45 51°13.563 2°51.887 11.7359 3.875057 33.826606 -1.035392
2009-11-16 07:57:50 51°13.554 2°51.863 11.7321 3.874953 33.824808 -1.035392
2009-11-16 07:57:55 51°13.546 2°51.839 11.7287 3.876612 33.840952 -1.000568
2009-11-16 07:58:00 51°13.537 2°51.815 11.7338 3.87516 33.826036 -1.000568
2009-11-16 07:58:05 51°13.529 2°51.791 11.7351 3.87516 33.826036 -1.000568
2009-11-16 07:58:09 51°13.522 2°51.772 11.7364 3.876819 33.84139 -1.000568
2009-11-16 07:58:15 51°13.512 2°51.743 11.7347 3.87599 33.832528 -1.000568
2009-11-16 07:58:20 51°13.504 2°51.719 11.7374 3.876716 33.839591 -1.035392
2009-11-16 07:58:25 51°13.495 2°51.695 11.7377 3.876094 33.833537 -1.000568
2009-11-16 07:58:30 51°13.487 2°51.672 11.7437 3.874953 33.823228 -1.000568
2009-11-16 07:58:35 51°13.478 2°51.648 11.7388 3.874953 33.823228 -1.000568
2009-11-16 07:58:40 51°13.469 2°51.624 11.7398 3.87516 33.825246 -1.000568
2009-11-16 07:58:45 51°13.461 2°51.6 11.7357 3.87205 33.79498 -1.000568
2009-11-16 07:58:49 51°13.454 2°51.581 11.7413 3.876716 33.839591 -1.000568
2009-11-16 07:58:55 51°13.444 2°51.552 11.7391 3.878271 33.853936 -1.000568
2009-11-16 07:59:00 51°13.435 2°51.529 11.7385 3.874642 33.817833 -1.000568
2009-11-16 07:59:05 51°13.427 2°51.505 11.7362 3.874642 33.817833 -1.000568
2009-11-16 07:59:10 51°13.418 2°51.481 11.7398 3.87402 33.810991 -1.035392
2009-11-16 07:59:15 51°13.409 2°51.458 11.7408 3.876508 33.834413 -1.035392
2009-11-16 07:59:20 51°13.401 2°51.434 11.74 3.874331 33.814017 -1.035392
2009-11-16 07:59:25 51°13.392 2°51.41 11.7402 3.872776 33.799674 -1.035392
2009-11-16 07:59:29 51°13.386 2°51.391 11.742 3.876923 33.840029 -1.000568
2009-11-16 07:59:35 51°13.375 2°51.362 11.7426 3.876923 33.840029 -1.000568
2009-11-16 07:59:40 51°13.367 2°51.338 11.7426 3.877649 33.847092 -1.000568
2009-11-16 07:59:45 51°13.358 2°51.315 11.7411 3.876197 33.832966 -1.000568
2009-11-16 07:59:50 51°13.35 2°51.291 11.746 3.87713 33.841257 -1.000568
2009-11-16 07:59:55 51°13.341 2°51.267 11.744 3.874227 33.813008 -1.000568
2009-11-16 08:00:00 51°13.333 2°51.243 11.7477 3.87319 33.80292 -1.000568
2009-11-16 08:00:05 51°13.324 2°51.22 11.7464 3.87319 33.80292 -1.000568
2009-11-16 08:00:10 51°13.316 2°51.196 11.7473 3.874227 33.812219 -1.000568
2009-11-16 08:00:15 51°13.307 2°51.172 11.7451 3.878375 33.852574 -1.000568
2009-11-16 08:00:20 51°13.299 2°51.148 11.7469 3.877338 33.842485 -1.000568
2009-11-16 08:00:25 51°13.29 2°51.124 11.7477 3.872983 33.799325 -1.000568
2009-11-16 08:00:30 51°13.282 2°51.1 11.7478 3.872879 33.797527 -1.000568
2009-11-16 08:00:35 51°13.273 2°51.077 11.7509 3.872879 33.797527 -1.000568
2009-11-16 08:00:40 51°13.265 2°51.052 11.7523 3.874227 33.809851 -1.000568
2009-11-16 08:00:45 51°13.257 2°51.028 11.7529 3.876923 33.83608 -1.000568
2009-11-16 08:00:50 51°13.249 2°51.004 11.7553 3.873398 33.801782 -1.000568
2009-11-16 08:00:55 51°13.241 2°50.98 11.7565 3.877856 33.845159 -1.000568
2009-11-16 08:01:00 51°13.233 2°50.956 11.757 3.872153 33.788889 -1.000568
2009-11-16 08:01:05 51°13.225 2°50.931 11.7605 3.872153 33.788889 -1.000568
2009-11-16 08:01:10 51°13.217 2°50.907 11.7618 3.871117 33.778015 -1.000568
2009-11-16 08:01:15 51°13.209 2°50.883 11.7612 3.875471 33.818799 -1.000568
2009-11-16 08:01:20 51°13.201 2°50.859 11.7634 3.877649 33.838403 -1.000568
2009-11-16 08:01:25 51°13.193 2°50.834 11.766 3.874849 33.81038 -1.000568
2009-11-16 08:01:29 51°13.187 2°50.815 11.7691 3.880967 33.869103 -1.000568
2009-11-16 08:01:35 51°13.178 2°50.786 11.7749 3.880967 33.869103 -1.000568
2009-11-16 08:01:40 51°13.17 2°50.761 11.7733 3.881381 33.871558 -1.000568
2009-11-16 08:01:45 51°13.162 2°50.737 11.7755 3.870183 33.761059 -1.000568
2009-11-16 08:01:50 51°13.154 2°50.713 11.7779 3.88501 33.904495 -1.000568
2009-11-16 08:01:55 51°13.146 2°50.689 11.7791 3.88584 33.910192 -1.000568
2009-11-16 08:02:00 51°13.138 2°50.665 11.7805 3.886047 33.909837 -1.000568
2009-11-16 08:02:05 51°13.13 2°50.64 11.7839 3.886047 33.909837 -1.000568
2009-11-16 08:02:09 51°13.124 2°50.621 11.7854 3.886462 33.911498 -1.000568
2009-11-16 08:02:15 51°13.114 2°50.592 11.7881 3.886565 33.910134 -1.000568
2009-11-16 08:02:20 51°13.106 2°50.568 11.7926 3.886358 33.906535 -1.000568
2009-11-16 08:02:25 51°13.098 2°50.544 11.796 3.887084 33.911222 -1.000568
2009-11-16 08:02:30 51°13.091 2°50.52 11.7962 3.887084 33.90964 -1.000568
2009-11-16 08:02:35 51°13.083 2°50.495 11.7993 3.887084 33.90964 -1.000568
2009-11-16 08:02:40 51°13.075 2°50.471 11.8026 3.88698 33.90705 -1.000568
2009-11-16 08:02:45 51°13.067 2°50.447 11.8047 3.884077 33.877235 -1.000568
2009-11-16 08:02:50 51°13.059 2°50.422 11.8074 3.886773 33.90108 -1.000568
2009-11-16 08:02:55 51°13.051 2°50.398 11.8109 3.887602 33.905985 -1.000568
2009-11-16 08:03:00 51°13.044 2°50.374 11.8154 3.887395 33.900806 -1.000568
2009-11-16 08:03:05 51°13.036 2°50.35 11.8166 3.887395 33.900806 -1.000568
2009-11-16 08:03:10 51°13.028 2°50.325 11.8208 3.887602 33.900452 -1.000568
2009-11-16 08:03:15 51°13.02 2°50.301 11.8234 3.887809 33.900097 -1.000568
2009-11-16 08:03:20 51°13.013 2°50.277 11.8238 3.88698 33.889663 -1.000568
2009-11-16 08:03:25 51°13.005 2°50.253 11.8265 3.887187 33.888519 -1.000568
2009-11-16 08:03:30 51°12.997 2°50.229 11.8278 3.887395 33.887376 -1.000568
2009-11-16 08:03:35 51°12.989 2°50.205 11.8319 3.887395 33.887376 -1.000568
2009-11-16 08:03:40 51°12.981 2°50.181 11.8352 3.88698 33.880187 -1.000568
2009-11-16 08:03:45 51°12.973 2°50.157 11.8387 3.888328 33.890129 -1.000568
2009-11-16 08:03:50 51°12.965 2°50.133 11.8443 3.889987 33.903092 -1.000568
2009-11-16 08:03:55 51°12.957 2°50.108 11.8461 3.890194 33.901948 -1.000568
2009-11-16 08:04:00 51°12.949 2°50.084 11.8496 3.888535 33.883461 -1.000568
2009-11-16 08:04:05 51°12.942 2°50.06 11.8521 3.888535 33.883461 -1.000568
2009-11-16 08:04:10 51°12.934 2°50.036 11.8539 3.888224 33.878071 -1.035392
2009-11-16 08:04:15 51°12.926 2°50.012 11.8582 3.891749 33.909953 -1.000568
2009-11-16 08:04:20 51°12.918 2°49.988 11.8596 3.892993 33.918882 -1.000568
2009-11-16 08:04:25 51°12.91 2°49.964 11.8603 3.891231 33.898601 -1.000568
2009-11-16 08:04:30 51°12.902 2°49.939 11.8613 3.892268 33.905515 -1.000568
2009-11-16 08:04:35 51°12.894 2°49.915 11.8656 3.892268 33.905515 -1.000568
2009-11-16 08:04:40 51°12.887 2°49.891 11.8684 3.888016 33.861074 -1.000568
2009-11-16 08:04:45 51°12.879 2°49.867 11.873 3.889986 33.877839 -1.000568
2009-11-16 08:04:50 51°12.871 2°49.843 11.874 3.886565 33.841465 -1.000568
2009-11-16 08:04:55 51°12.863 2°49.819 11.8756 3.874641 33.723383 -1.000568
2009-11-16 08:05:00 51°12.855 2°49.795 11.8784 3.876714 33.741148 -1.000568
2009-11-16 08:05:05 51°12.847 2°49.771 11.8783 3.876714 33.741148 -1.000568
2009-11-16 08:05:09 51°12.841 2°49.752 11.8815 3.888431 33.852494 -1.000568
2009-11-16 08:05:15 51°12.831 2°49.723 11.8828 3.88221 33.78897 -1.000568
2009-11-16 08:05:20 51°12.823 2°49.699 11.8848 3.875574 33.721452 -1.000568
2009-11-16 08:05:25 51°12.816 2°49.675 11.8883 3.881898 33.780451 -1.000568
2009-11-16 08:05:30 51°12.808 2°49.651 11.891 3.881587 33.775076 -1.000568
2009-11-16 08:05:35 51°12.8 2°49.627 11.8946 3.881587 33.775076 -1.000568
2009-11-16 08:05:40 51°12.792 2°49.603 11.8962 3.887705 33.832067 -1.000568
2009-11-16 08:05:45 51°12.784 2°49.579 11.896 3.88449 33.799311 -1.000568
2009-11-16 08:05:49 51°12.778 2°49.56 11.8982 3.881691 33.769799 -1.000568
2009-11-16 08:05:55 51°12.769 2°49.531 11.898 3.887912 33.828572 -1.000568
2009-11-16 08:06:00 51°12.761 2°49.506 11.9007 3.895792 33.902667 -1.000568
2009-11-16 08:06:05 51°12.753 2°49.482 11.8994 3.895792 33.902667 -1.000568
2009-11-16 08:06:10 51°12.746 2°49.458 11.8982 3.886357 33.807982 -1.000568
2009-11-16 08:06:15 51°12.738 2°49.434 11.8999 3.889053 33.831771 -1.000568
2009-11-16 08:06:20 51°12.73 2°49.41 11.8983 3.8904 33.842485 -1.000568
2009-11-16 08:06:25 51°12.722 2°49.386 11.9003 3.893719 33.873094 -1.000568
2009-11-16 08:06:29 51°12.716 2°49.367 11.8976 3.894548 33.879565 -1.000568
2009-11-16 08:06:35 51°12.707 2°49.338 11.8976 3.894548 33.879565 -1.000568
2009-11-16 08:06:40 51°12.699 2°49.314 11.8969 3.894859 33.881795 -1.000568
2009-11-16 08:06:45 51°12.691 2°49.29 11.8969 3.885216 33.78828 -1.000568
2009-11-16 08:06:50 51°12.684 2°49.266 11.9007 3.894237 33.87576 -1.000568
2009-11-16 08:06:55 51°12.676 2°49.242 11.8988 3.894444 33.876985 -1.000568
2009-11-16 08:07:00 51°12.668 2°49.218 11.8986 3.89714 33.903134 -1.000568
2009-11-16 08:07:05 51°12.66 2°49.194 11.897 3.89714 33.903134 -1.000568
2009-11-16 08:07:10 51°12.653 2°49.17 11.897 3.898281 33.914987 -1.000568
2009-11-16 08:07:15 51°12.645 2°49.145 11.9008 3.896414 33.897669 -1.000568
2009-11-16 08:07:20 51°12.638 2°49.121 11.9031 3.897348 33.906722 -1.000568
2009-11-16 08:07:25 51°12.631 2°49.096 11.9041 3.896829 33.901693 -1.000568
2009-11-16 08:07:30 51°12.624 2°49.071 11.9048 3.896518 33.897887 -1.000568
2009-11-16 08:07:35 51°12.617 2°49.047 11.9027 3.896518 33.897887 -1.000568
2009-11-16 08:07:40 51°12.611 2°49.022 11.9045 3.896725 33.899899 -1.000568
2009-11-16 08:07:45 51°12.604 2°48.998 11.9097 3.898903 33.921023 -1.000568
2009-11-16 08:07:50 51°12.597 2°48.973 11.9116 3.892785 33.860894 -1.000568
2009-11-16 08:07:55 51°12.59 2°48.948 11.9144 3.893511 33.866359 -1.000568
2009-11-16 08:08:00 51°12.583 2°48.924 11.9161 3.89714 33.900771 -1.000568
2009-11-16 08:08:05 51°12.577 2°48.899 11.9211 3.89714 33.900771 -1.000568
2009-11-16 08:08:09 51°12.571 2°48.879 11.9218 3.898696 33.915069 -1.000568
2009-11-16 08:08:15 51°12.563 2°48.85 11.923 3.900147 33.929151 -1.000568
2009-11-16 08:08:20 51°12.556 2°48.826 11.9265 3.896414 33.891368 -1.000568
2009-11-16 08:08:25 51°12.549 2°48.801 11.9301 3.899732 33.921186 -1.000568
2009-11-16 08:08:30 51°12.542 2°48.777 11.9339 3.898592 33.90776 -1.000568
2009-11-16 08:08:35 51°12.535 2°48.753 11.9397 3.898592 33.90776 -1.000568
2009-11-16 08:08:40 51°12.528 2°48.728 11.9431 3.899836 33.917463 -1.000568
2009-11-16 08:08:45 51°12.521 2°48.703 11.9489 3.900147 33.917328 -1.000568
2009-11-16 08:08:50 51°12.515 2°48.679 11.9532 3.902843 33.941896 -1.000568
2009-11-16 08:08:55 51°12.508 2°48.654 11.958 3.902636 33.936732 -1.000568
2009-11-16 08:09:00 51°12.501 2°48.629 11.9626 3.899836 33.906435 -1.000568
2009-11-16 08:09:05 51°12.495 2°48.605 11.9686 3.899836 33.906435 -1.000568
2009-11-16 08:09:09 51°12.489 2°48.585 11.9743 3.903258 33.935671 -1.000568
2009-11-16 08:09:15 51°12.481 2°48.556 11.9779 3.903983 33.938768 -1.000568
2009-11-16 08:09:20 51°12.474 2°48.531 11.9821 3.904605 33.940071 -1.000568
2009-11-16 08:09:25 51°12.467 2°48.507 11.9865 3.905331 33.943167 -1.000568
2009-11-16 08:09:30 51°12.46 2°48.482 11.9902 3.906057 33.944687 -1.000568
2009-11-16 08:09:35 51°12.454 2°48.458 11.9929 3.906057 33.944687 -1.000568
2009-11-16 08:09:40 51°12.447 2°48.433 11.9984 3.904605 33.925108 -1.000568
2009-11-16 08:09:45 51°12.44 2°48.409 12.0017 3.907923 33.952532 -1.000568
2009-11-16 08:09:50 51°12.434 2°48.384 12.0054 3.906161 33.929944 -1.000568
2009-11-16 08:09:55 51°12.426 2°48.36 12.0098 3.909375 33.956357 -1.000568
2009-11-16 08:10:00 51°12.419 2°48.336 12.0134 3.907197 33.931331 -1.000568
2009-11-16 08:10:05 51°12.413 2°48.311 12.0189 3.907197 33.931331 -1.000568
2009-11-16 08:10:09 51°12.407 2°48.291 12.0239 3.908545 33.94045 -1.000568
2009-11-16 08:10:15 51°12.399 2°48.263 12.0317 3.910826 33.958606 -1.000568
2009-11-16 08:10:20 51°12.392 2°48.238 12.0376 3.910308 33.94965 -1.000568
2009-11-16 08:10:25 51°12.385 2°48.214 12.044 3.911241 33.953177 -1.000568
2009-11-16 08:10:30 51°12.378 2°48.19 12.0468 3.911759 33.954262 -1.000568
2009-11-16 08:10:35 51°12.371 2°48.166 12.0552 3.911759 33.954262 -1.000568
2009-11-16 08:10:40 51°12.364 2°48.142 12.0621 3.913522 33.966604 -1.000568
2009-11-16 08:10:45 51°12.357 2°48.117 12.0679 3.913211 33.958872 -1.000568
2009-11-16 08:10:49 51°12.352 2°48.098 12.0769 3.913418 33.955373 -1.000568
2009-11-16 08:10:55 51°12.343 2°48.069 12.0897 3.913522 33.950087 -1.000568
2009-11-16 08:11:00 51°12.336 2°48.045 12.0974 3.916011 33.968659 -1.000568
2009-11-16 08:11:05 51°12.329 2°48.021 12.1071 3.916011 33.968659 -1.000568
2009-11-16 08:11:10 51°12.323 2°47.996 12.1171 3.914974 33.951553 -1.000568
2009-11-16 08:11:15 51°12.316 2°47.972 12.1273 3.918914 33.98416 -1.000568
2009-11-16 08:11:20 51°12.309 2°47.948 12.1375 3.915284 33.941993 -1.000568
2009-11-16 08:11:25 51°12.302 2°47.924 12.1454 3.918084 33.961205 -1.000568
2009-11-16 08:11:29 51°12.297 2°47.904 12.1575 3.920158 33.97261 -1.035392
2009-11-16 08:11:35 51°12.288 2°47.876 12.1681 3.920158 33.97261 -1.035392
2009-11-16 08:11:40 51°12.282 2°47.852 12.1797 3.92275 33.986665 -1.000568
2009-11-16 08:11:45 51°12.275 2°47.827 12.1874 3.92669 34.016882 -1.000568
2009-11-16 08:11:50 51°12.268 2°47.803 12.1903 3.927312 34.01189 -1.000568
2009-11-16 08:11:55 51°12.261 2°47.779 12.1995 3.925964 33.990232 -1.035392
2009-11-16 08:12:00 51°12.255 2°47.755 12.2057 3.928453 34.002487 -1.035392
2009-11-16 08:12:05 51°12.248 2°47.731 12.2122 3.928453 34.002487 -1.035392
2009-11-16 08:12:10 51°12.241 2°47.707 12.2216 3.930008 34.006513 -1.035392
2009-11-16 08:12:15 51°12.234 2°47.683 12.2238 3.93146 34.010322 -1.000568
2009-11-16 08:12:20 51°12.228 2°47.658 12.2264 3.931149 33.997125 -1.035392
2009-11-16 08:12:25 51°12.221 2°47.634 12.2357 3.932496 34.003072 -1.035392
2009-11-16 08:12:30 51°12.214 2°47.61 12.2415 3.928867 33.959459 -1.035392
2009-11-16 08:12:35 51°12.207 2°47.586 12.2457 3.928867 33.959459 -1.035392
2009-11-16 08:12:40 51°12.2 2°47.562 12.2493 3.936229 34.021823 -1.035392
2009-11-16 08:12:45 51°12.194 2°47.538 12.2523 3.936644 34.0172 -1.035392
2009-11-16 08:12:50 51°12.187 2°47.514 12.2618 3.938822 34.032703 -1.035392
2009-11-16 08:12:55 51°12.181 2°47.49 12.2685 3.938614 34.025219 -1.035392
2009-11-16 08:13:00 51°12.174 2°47.466 12.2722 3.940273 34.034938 -1.035392
2009-11-16 08:13:05 51°12.167 2°47.441 12.2762 3.940273 34.034938 -1.035392
2009-11-16 08:13:10 51°12.16 2°47.417 12.2801 3.942555 34.049866 -1.035392
2009-11-16 08:13:15 51°12.154 2°47.393 12.2839 3.93851 34.005427 -1.035392
2009-11-16 08:13:20 51°12.147 2°47.369 12.2889 3.941517 34.028127 -1.035392
2009-11-16 08:13:25 51°12.141 2°47.344 12.2921 3.943384 34.040621 -1.035392
2009-11-16 08:13:29 51°12.135 2°47.325 12.2974 3.943591 34.037138 -1.035392
2009-11-16 08:13:35 51°12.127 2°47.297 12.2995 3.943591 34.037138 -1.035392
2009-11-16 08:13:40 51°12.12 2°47.273 12.3015 3.943799 34.034438 -1.035392
2009-11-16 08:13:45 51°12.113 2°47.249 12.3041 3.947013 34.059905 -1.035392
2009-11-16 08:13:50 51°12.107 2°47.224 12.3087 3.946909 34.054208 -1.035392
2009-11-16 08:13:55 51°12.1 2°47.2 12.3112 3.946391 34.044522 -1.035392
2009-11-16 08:14:00 51°12.094 2°47.176 12.3129 3.948361 34.05957 -1.035392
2009-11-16 08:14:05 51°12.087 2°47.152 12.3178 3.948361 34.05957 -1.035392
2009-11-16 08:14:09 51°12.081 2°47.133 12.3199 3.945976 34.031144 -1.035392
2009-11-16 08:14:15 51°12.072 2°47.105 12.3232 3.941413 33.984128 -1.035392
2009-11-16 08:14:20 51°12.066 2°47.081 12.325 3.945976 34.024108 -1.035392
2009-11-16 08:14:25 51°12.059 2°47.056 12.329 3.942968 33.99206 -1.035392
2009-11-16 08:14:30 51°12.053 2°47.032 12.3322 3.949294 34.04899 -1.035392
2009-11-16 08:14:35 51°12.046 2°47.008 12.3348 3.949294 34.04899 -1.035392
2009-11-16 08:14:40 51°12.039 2°46.984 12.3371 3.949294 34.045862 -1.035392
2009-11-16 08:14:45 51°12.032 2°46.96 12.3383 3.949398 34.043732 -1.035392
2009-11-16 08:14:49 51°12.027 2°46.941 12.341 3.952405 34.068741 -1.035392
2009-11-16 08:14:55 51°12.019 2°46.912 12.3442 3.952716 34.069387 -1.035392
2009-11-16 08:15:00 51°12.012 2°46.888 12.3461 3.953753 34.075447 -1.035392
2009-11-16 08:15:05 51°12.005 2°46.864 12.3487 3.953753 34.075447 -1.035392
2009-11-16 08:15:10 51°11.998 2°46.839 12.3516 3.949709 34.03422 -1.035392
2009-11-16 08:15:15 51°11.991 2°46.815 12.3549 3.951368 34.046263 -1.035392
2009-11-16 08:15:20 51°11.984 2°46.791 12.3579 3.95396 34.069621 -1.035392
2009-11-16 08:15:25 51°11.977 2°46.767 12.3599 3.950331 34.031609 -1.035392
2009-11-16 08:15:29 51°11.972 2°46.747 12.3623 3.951368 34.038452 -1.035392
2009-11-16 08:15:35 51°11.963 2°46.718 12.3646 3.951368 34.038452 -1.035392
2009-11-16 08:15:40 51°11.956 2°46.693 12.3663 3.953857 34.060026 -1.035392
2009-11-16 08:15:45 51°11.95 2°46.668 12.3688 3.952716 34.045939 -1.035392
2009-11-16 08:15:50 51°11.945 2°46.643 12.3718 3.954894 34.064522 -1.035392
2009-11-16 08:15:55 51°11.939 2°46.617 12.3718 3.953338 34.046451 -1.035392
2009-11-16 08:16:00 51°11.934 2°46.592 12.3731 3.952612 34.036355 -1.035392
2009-11-16 08:16:05 51°11.928 2°46.566 12.3748 3.952612 34.036355 -1.035392
2009-11-16 08:16:10 51°11.923 2°46.541 12.3747 3.954893 34.055149 -1.035392
2009-11-16 08:16:15 51°11.918 2°46.515 12.3772 3.954582 34.049818 -1.035392
2009-11-16 08:16:20 51°11.914 2°46.489 12.3786 3.955516 34.05644 -1.035392
2009-11-16 08:16:25 51°11.909 2°46.463 12.3806 3.954686 34.04613 -1.035392
2009-11-16 08:16:30 51°11.904 2°46.437 12.3808 3.956449 34.061501 -1.035392
2009-11-16 08:16:35 51°11.9 2°46.412 12.3826 3.956449 34.061501 -1.035392
2009-11-16 08:16:40 51°11.895 2°46.386 12.3833 3.952612 34.023091 -1.035392
2009-11-16 08:16:45 51°11.89 2°46.36 12.3841 3.956552 34.059374 -1.035392
2009-11-16 08:16:50 51°11.886 2°46.334 12.3857 3.958004 34.071755 -1.035392
2009-11-16 08:16:55 51°11.882 2°46.308 12.3871 3.958108 34.07119 -1.035392
2009-11-16 08:17:00 51°11.877 2°46.283 12.3889 3.955619 34.045728 -1.035392
2009-11-16 08:17:05 51°11.874 2°46.256 12.3892 3.955619 34.045728 -1.035392
2009-11-16 08:17:10 51°11.87 2°46.23 12.3906 3.954686 34.035987 -1.035392
2009-11-16 08:17:15 51°11.867 2°46.204 12.3916 3.958419 34.070273 -1.035392
2009-11-16 08:17:20 51°11.864 2°46.178 12.3932 3.956552 34.051569 -1.035392
2009-11-16 08:17:25 51°11.862 2°46.151 12.3934 3.956656 34.050224 -1.035392
2009-11-16 08:17:30 51°11.86 2°46.125 12.3948 3.95593 34.042474 -1.035392
2009-11-16 08:17:35 51°11.858 2°46.098 12.3963 3.95593 34.042474 -1.035392
2009-11-16 08:17:40 51°11.856 2°46.072 12.3975 3.955515 34.036932 -1.035392
2009-11-16 08:17:45 51°11.854 2°46.045 12.3969 3.956034 34.04035 -1.035392
2009-11-16 08:17:50 51°11.853 2°46.019 12.3977 3.955204 34.030827 -1.035392
2009-11-16 08:17:55 51°11.851 2°45.992 12.4003 3.957486 34.051947 -1.035392
2009-11-16 08:18:00 51°11.85 2°45.966 12.4004 3.957382 34.049391 -1.035392
2009-11-16 08:18:05 51°11.849 2°45.939 12.4011 3.957382 34.049391 -1.035392
2009-11-16 08:18:09 51°11.848 2°45.918 12.4012 3.960286 34.075704 -1.035392
2009-11-16 08:18:15 51°11.847 2°45.885 12.4019 3.959041 34.062198 -1.035392
2009-11-16 08:18:20 51°11.846 2°45.859 12.4029 3.958834 34.059427 -1.035392
2009-11-16 08:18:25 51°11.845 2°45.832 12.4029 3.956656 34.037745 -1.035392
2009-11-16 08:18:30 51°11.844 2°45.806 12.4027 3.958419 34.053886 -1.035392
2009-11-16 08:18:35 51°11.843 2°45.779 12.4033 3.958419 34.053886 -1.035392
2009-11-16 08:18:40 51°11.842 2°45.752 12.4043 3.958523 34.054101 -1.035392
2009-11-16 08:18:45 51°11.842 2°45.726 12.405 3.95593 34.02844 -1.035392
2009-11-16 08:18:49 51°11.841 2°45.704 12.4063 3.957797 34.045574 -1.035392
2009-11-16 08:18:55 51°11.839 2°45.673 12.4052 3.957174 34.038824 -1.035392
2009-11-16 08:19:00 51°11.837 2°45.646 12.4068 3.957485 34.04103 -1.035392
2009-11-16 08:19:05 51°11.836 2°45.62 12.4064 3.957485 34.04103 -1.035392
2009-11-16 08:19:10 51°11.834 2°45.594 12.4065 3.956967 34.036054 -1.035392
2009-11-16 08:19:15 51°11.832 2°45.567 12.4071 3.959456 34.059159 -1.035392
2009-11-16 08:19:20 51°11.83 2°45.541 12.4079 3.961322 34.076293 -1.035392
2009-11-16 08:19:25 51°11.828 2°45.515 12.4082 3.961011 34.072527 -1.035392
2009-11-16 08:19:29 51°11.826 2°45.494 12.4079 3.957071 34.034711 -1.035392
2009-11-16 08:19:35 51°11.823 2°45.463 12.4083 3.957071 34.034711 -1.035392
2009-11-16 08:19:40 51°11.821 2°45.437 12.4082 3.957174 34.034926 -1.035392
2009-11-16 08:19:45 51°11.819 2°45.411 12.4085 3.9579 34.041892 -1.035392
2009-11-16 08:19:50 51°11.816 2°45.385 12.408 3.958315 34.045093 -1.035392
2009-11-16 08:19:55 51°11.814 2°45.359 12.4084 3.956034 34.023202 -1.035392
2009-11-16 08:20:00 51°11.811 2°45.333 12.4087 3.952611 33.989592 -1.035392
2009-11-16 08:20:05 51°11.809 2°45.307 12.4093 3.952611 33.989592 -1.035392
2009-11-16 08:20:09 51°11.807 2°45.286 12.4095 3.958004 34.041328 -1.035392
2009-11-16 08:20:15 51°11.804 2°45.255 12.4089 3.957693 34.037564 -1.035392
2009-11-16 08:20:20 51°11.802 2°45.229 12.4103 3.959248 34.052489 -1.035392
2009-11-16 08:20:25 51°11.799 2°45.203 12.408 3.960804 34.067416 -1.035392
2009-11-16 08:20:30 51°11.797 2°45.177 12.4081 3.960078 34.06045 -1.035392
2009-11-16 08:20:35 51°11.795 2°45.151 12.4092 3.960078 34.06045 -1.035392
2009-11-16 08:20:40 51°11.792 2°45.125 12.4079 3.960285 34.061661 -1.035392
2009-11-16 08:20:45 51°11.79 2°45.099 12.4084 3.959871 34.05768 -1.035392
2009-11-16 08:20:49 51°11.788 2°45.078 12.4081 3.959767 34.056685 -1.035392
2009-11-16 08:21:33 51°11.766 2°44.851 12.4083 3.958626 34.045739 -1.000568
2009-11-16 08:21:38 51°11.763 2°44.825 12.4084 3.961219 34.070617 -1.000568
2009-11-16 08:21:43 51°11.761 2°44.8 12.4095 3.957589 34.035789 -1.000568
2009-11-16 08:21:48 51°11.758 2°44.774 12.4088 3.958626 34.045739 -1.000568
2009-11-16 08:21:53 51°11.756 2°44.748 12.4076 3.958626 34.045739 -1.000568
2009-11-16 08:21:58 51°11.753 2°44.722 12.4077 3.954063 34.001962 -1.000568
2009-11-16 08:22:03 51°11.751 2°44.697 12.4062 3.958108 34.040764 -1.000568
2009-11-16 08:22:08 51°11.748 2°44.671 12.4057 3.955619 34.016885 -1.000568
2009-11-16 08:22:13 51°11.745 2°44.645 12.407 3.956552 34.026619 -1.000568
2009-11-16 08:22:18 51°11.743 2°44.62 12.4076 3.959974 34.060235 -1.000568
2009-11-16 08:22:23 51°11.74 2°44.594 12.4053 3.959974 34.060235 -1.000568
2009-11-16 08:22:28 51°11.738 2°44.568 12.4048 3.95873 34.048294 -1.000568
2009-11-16 08:22:33 51°11.735 2°44.543 12.4058 3.959041 34.051279 -1.000568
2009-11-16 08:22:38 51°11.733 2°44.517 12.4035 3.954271 34.005509 -1.000568
2009-11-16 08:22:43 51°11.73 2°44.492 12.4034 3.952197 33.98639 -1.000568
2009-11-16 08:22:48 51°11.728 2°44.466 12.4043 3.957796 34.039338 -1.000568
2009-11-16 08:22:53 51°11.725 2°44.44 12.4039 3.957796 34.039338 -1.000568
2009-11-16 08:22:57 51°11.723 2°44.42 12.4031 3.956448 34.027182 -1.000568
2009-11-16 08:23:03 51°11.719 2°44.389 12.4022 3.959352 34.055044 -1.000568
2009-11-16 08:23:08 51°11.716 2°44.364 12.4028 3.959041 34.052059 -1.000568
2009-11-16 08:23:13 51°11.713 2°44.339 12.4032 3.956241 34.025971 -1.000568
2009-11-16 08:23:17 51°11.711 2°44.318 12.4031 3.957071 34.034711 -1.000568
2009-11-16 08:23:23 51°11.707 2°44.288 12.4017 3.957071 34.034711 -1.000568
2009-11-16 08:23:28 51°11.704 2°44.262 12.4008 3.962567 34.087456 -1.000568
2009-11-16 08:23:33 51°11.701 2°44.237 12.4012 3.955308 34.018574 -1.000568
2009-11-16 08:23:38 51°11.698 2°44.211 12.4015 3.957174 34.036485 -1.000568
2009-11-16 08:23:43 51°11.695 2°44.186 12.4015 3.958211 34.046436 -1.000568
2009-11-16 08:23:48 51°11.692 2°44.16 12.3997 3.959767 34.061364 -1.000568
2009-11-16 08:23:53 51°11.689 2°44.135 12.4006 3.959767 34.061364 -1.000568
2009-11-16 08:23:57 51°11.687 2°44.115 12.3982 3.959767 34.062144 -1.000568
2009-11-16 08:24:03 51°11.683 2°44.084 12.4001 3.95396 34.006418 -0.965744
2009-11-16 08:24:08 51°11.68 2°44.059 12.399 3.956552 34.032073 -1.000568
2009-11-16 08:24:13 51°11.677 2°44.034 12.3974 3.954893 34.016152 -0.965744
2009-11-16 08:24:18 51°11.674 2°44.008 12.3979 3.954789 34.015936 -1.000568
2009-11-16 08:24:23 51°11.671 2°43.983 12.4016 3.954789 34.015936 -1.000568
2009-11-16 08:24:28 51°11.668 2°43.958 12.3978 3.955308 34.020911 -1.000568
2009-11-16 08:24:33 51°11.665 2°43.932 12.3994 3.956863 34.035838 -0.965744
2009-11-16 08:24:38 51°11.662 2°43.907 12.3967 3.956967 34.037613 -1.000568
2009-11-16 08:24:43 51°11.659 2°43.882 12.3979 3.957589 34.043584 -0.965744
2009-11-16 08:24:48 51°11.655 2°43.857 12.3966 3.950019 33.970945 -1.000568
2009-11-16 08:24:53 51°11.652 2°43.832 12.3969 3.950019 33.970945 -1.000568
2009-11-16 08:24:58 51°11.649 2°43.806 12.3965 3.952819 33.998587 -1.000568
2009-11-16 08:25:03 51°11.646 2°43.781 12.3972 3.955515 34.02446 -1.000568
2009-11-16 08:25:08 51°11.643 2°43.756 12.3955 3.959663 34.06505 -1.000568
2009-11-16 08:25:13 51°11.639 2°43.731 12.3954 3.961841 34.085953 -1.000568
2009-11-16 08:25:18 51°11.636 2°43.706 12.3951 3.958419 34.053886 -1.000568
2009-11-16 08:25:23 51°11.633 2°43.68 12.3943 3.958419 34.053886 -1.000568
2009-11-16 08:25:28 51°11.631 2°43.655 12.3951 3.959767 34.066825 -0.965744
2009-11-16 08:25:33 51°11.627 2°43.63 12.3953 3.960389 34.073578 -1.000568
2009-11-16 08:25:37 51°11.625 2°43.61 12.3934 3.961011 34.079551 -1.000568
2009-11-16 08:25:43 51°11.622 2°43.58 12.3948 3.959663 34.06661 -1.000568
2009-11-16 08:25:48 51°11.618 2°43.554 12.3925 3.957693 34.048478 -1.000568
2009-11-16 08:25:53 51°11.615 2°43.529 12.3946 3.957693 34.048478 -1.000568
2009-11-16 08:25:58 51°11.612 2°43.504 12.3917 3.958834 34.059427 -1.000568
2009-11-16 08:26:03 51°11.609 2°43.479 12.3933 3.96153 34.085309 -0.965744
2009-11-16 08:26:08 51°11.606 2°43.454 12.3946 3.95873 34.059212 -1.000568
2009-11-16 08:26:13 51°11.603 2°43.429 12.3932 3.958108 34.053239 -1.000568
2009-11-16 08:26:18 51°11.6 2°43.404 12.3934 3.955723 34.031126 -1.000568
2009-11-16 08:26:23 51°11.597 2°43.379 12.3947 3.955723 34.031126 -1.000568
2009-11-16 08:26:28 51°11.594 2°43.353 12.3925 3.960182 34.074709 -1.000568
2009-11-16 08:26:33 51°11.591 2°43.328 12.3931 3.95956 34.068736 -1.000568
2009-11-16 08:26:38 51°11.588 2°43.303 12.3938 3.956967 34.04385 -0.965744
2009-11-16 08:26:43 51°11.585 2°43.278 12.3937 3.960182 34.073928 -1.000568
2009-11-16 08:26:48 51°11.582 2°43.253 12.3924 3.959974 34.072718 -1.000568
2009-11-16 08:26:53 51°11.578 2°43.227 12.3925 3.959974 34.072718 -1.000568
2009-11-16 08:26:58 51°11.575 2°43.203 12.3929 3.957071 34.044845 -0.965744
2009-11-16 08:27:03 51°11.572 2°43.177 12.3929 3.959871 34.071722 -1.000568
2009-11-16 08:27:08 51°11.569 2°43.152 12.3917 3.957071 34.044845 -1.000568
2009-11-16 08:27:13 51°11.566 2°43.127 12.3919 3.960804 34.080682 -0.965744
2009-11-16 08:27:18 51°11.563 2°43.102 12.3926 3.959663 34.069731 -0.965744
2009-11-16 08:27:23 51°11.56 2°43.077 12.3922 3.959663 34.069731 -0.965744
2009-11-16 08:27:28 51°11.557 2°43.052 12.3928 3.960286 34.076485 -1.000568
2009-11-16 08:27:33 51°11.554 2°43.026 12.3934 3.958523 34.059561 -1.000568
2009-11-16 08:27:37 51°11.551 2°43.006 12.3924 3.958523 34.059561 -1.000568
2009-11-16 08:27:43 51°11.548 2°42.976 12.3936 3.958419 34.058566 -0.965744
2009-11-16 08:27:48 51°11.545 2°42.951 12.3913 3.957174 34.046621 -0.965744
2009-11-16 08:27:53 51°11.542 2°42.926 12.3917 3.957174 34.046621 -0.965744
2009-11-16 08:27:58 51°11.538 2°42.901 12.3917 3.95956 34.069516 -1.000568
2009-11-16 08:28:03 51°11.535 2°42.876 12.3914 3.957693 34.051598 -0.965744
2009-11-16 08:28:08 51°11.532 2°42.85 12.3926 3.958315 34.05757 -1.000568
2009-11-16 08:28:13 51°11.529 2°42.825 12.3926 3.957174 34.045841 -1.000568
2009-11-16 08:28:18 51°11.526 2°42.8 12.3918 3.959871 34.072503 -0.965744
2009-11-16 08:28:23 51°11.523 2°42.775 12.3913 3.959871 34.072503 -0.965744
2009-11-16 08:28:28 51°11.52 2°42.75 12.3943 3.960182 34.075489 -1.000568
2009-11-16 08:28:33 51°11.517 2°42.725 12.3919 3.959974 34.073498 -0.965744
2009-11-16 08:28:38 51°11.513 2°42.7 12.3918 3.959871 34.072503 -1.000568
2009-11-16 08:28:43 51°11.51 2°42.675 12.3906 3.960286 34.076485 -1.000568
2009-11-16 08:28:48 51°11.507 2°42.65 12.3903 3.960286 34.076485 -1.000568
2009-11-16 08:28:53 51°11.504 2°42.625 12.3911 3.960286 34.076485 -1.000568
2009-11-16 08:28:58 51°11.501 2°42.6 12.3904 3.955826 34.033681 -1.000568
2009-11-16 08:29:03 51°11.497 2°42.575 12.3905 3.955515 34.030695 -1.000568
2009-11-16 08:29:08 51°11.494 2°42.549 12.3902 3.959249 34.06653 -0.965744
2009-11-16 08:29:13 51°11.491 2°42.524 12.3912 3.96153 34.089213 -1.000568
2009-11-16 08:29:18 51°11.488 2°42.499 12.3908 3.956967 34.04541 -1.000568
2009-11-16 08:29:23 51°11.485 2°42.474 12.3902 3.956967 34.04541 -1.000568
2009-11-16 08:29:28 51°11.482 2°42.449 12.3916 3.959352 34.068306 -1.000568
2009-11-16 08:29:33 51°11.478 2°42.424 12.391 3.955723 34.034245 -0.965744
2009-11-16 08:29:37 51°11.476 2°42.404 12.3903 3.960493 34.080038 -1.000568
2009-11-16 08:29:43 51°11.472 2°42.374 12.3905 3.957278 34.048396 -1.000568
2009-11-16 08:29:48 51°11.469 2°42.348 12.3887 3.958315 34.059131 -0.965744
2009-11-16 08:29:53 51°11.466 2°42.323 12.39 3.958315 34.059131 -0.965744
2009-11-16 08:29:57 51°11.463 2°42.303 12.3892 3.960908 34.08402 -1.000568
2009-11-16 08:30:03 51°11.459 2°42.273 12.3902 3.954374 34.021305 -1.000568
2009-11-16 08:30:08 51°11.456 2°42.248 12.3888 3.957174 34.048181 -0.965744
2009-11-16 08:30:13 51°11.453 2°42.223 12.3875 3.956241 34.039222 -0.965744
2009-11-16 08:30:17 51°11.45 2°42.203 12.3881 3.957071 34.047185 -0.965744
2009-11-16 08:30:23 51°11.446 2°42.173 12.3872 3.957071 34.047185 -0.965744
2009-11-16 08:30:28 51°11.443 2°42.147 12.3881 3.959352 34.069867 -1.000568
2009-11-16 08:30:33 51°11.44 2°42.122 12.3883 3.958108 34.05792 -1.000568
2009-11-16 08:30:38 51°11.437 2°42.097 12.3865 3.95593 34.037015 -0.965744
2009-11-16 08:30:43 51°11.433 2°42.072 12.3879 3.959352 34.069867 -1.000568
2009-11-16 08:30:48 51°11.43 2°42.047 12.3871 3.956863 34.047534 -1.000568
2009-11-16 08:30:53 51°11.427 2°42.022 12.3859 3.956863 34.047534 -1.000568
2009-11-16 08:30:58 51°11.423 2°41.997 12.3856 3.960389 34.081384 -1.000568
2009-11-16 08:31:03 51°11.419 2°41.972 12.3854 3.963293 34.109265 -0.965744
2009-11-16 08:31:08 51°11.415 2°41.948 12.3859 3.960908 34.086363 -1.000568
2009-11-16 08:31:13 51°11.41 2°41.924 12.3877 3.962463 34.10208 -1.000568
2009-11-16 08:31:18 51°11.405 2°41.899 12.385 3.96153 34.093118 -0.965744
2009-11-16 08:31:23 51°11.399 2°41.876 12.3846 3.96153 34.093118 -0.965744
2009-11-16 08:31:28 51°11.394 2°41.852 12.385 3.961012 34.088139 -1.000568
2009-11-16 08:31:33 51°11.388 2°41.828 12.3859 3.962567 34.103857 -1.000568
2009-11-16 08:31:38 51°11.382 2°41.805 12.3855 3.960804 34.08771 -1.000568
2009-11-16 08:31:43 51°11.376 2°41.781 12.3866 3.961945 34.098663 -1.000568
2009-11-16 08:31:48 51°11.369 2°41.758 12.3857 3.960493 34.085504 -1.000568
2009-11-16 08:31:53 51°11.363 2°41.735 12.3845 3.960493 34.085504 -1.000568
2009-11-16 08:31:58 51°11.356 2°41.711 12.3845 3.960286 34.082731 -1.000568
2009-11-16 08:32:03 51°11.349 2°41.688 12.3852 3.963086 34.110399 -1.000568
2009-11-16 08:32:08 51°11.343 2°41.665 12.3857 3.961219 34.092474 -1.000568
2009-11-16 08:32:13 51°11.336 2°41.642 12.3869 3.961323 34.09347 -1.000568
2009-11-16 08:32:17 51°11.33 2°41.623 12.3866 3.9607 34.086714 -1.000568
2009-11-16 08:32:23 51°11.322 2°41.595 12.3867 3.9607 34.086714 -1.000568
2009-11-16 08:32:28 51°11.316 2°41.572 12.3865 3.962049 34.100441 -1.000568
2009-11-16 08:32:33 51°11.309 2°41.549 12.3866 3.961426 34.094466 -1.000568
2009-11-16 08:32:38 51°11.302 2°41.526 12.3871 3.962567 34.10542 -1.000568
2009-11-16 08:32:43 51°11.296 2°41.503 12.3876 3.961634 34.096457 -1.000568
2009-11-16 08:32:48 51°11.289 2°41.479 12.3875 3.958108 34.061822 -1.000568
2009-11-16 08:32:53 51°11.282 2°41.456 12.3873 3.958108 34.061822 -1.000568
2009-11-16 08:32:57 51°11.276 2°41.438 12.3886 3.960908 34.088706 -1.000568
2009-11-16 08:33:03 51°11.267 2°41.41 12.3898 3.961945 34.098663 -1.000568
2009-11-16 08:33:08 51°11.26 2°41.388 12.3876 3.960389 34.083727 -1.000568
2009-11-16 08:33:13 51°11.252 2°41.365 12.3901 3.959456 34.073985 -1.000568
2009-11-16 08:33:18 51°11.244 2°41.343 12.3897 3.961219 34.091693 -1.000568
2009-11-16 08:33:23 51°11.236 2°41.32 12.3903 3.961219 34.091693 -1.000568
2009-11-16 08:33:28 51°11.228 2°41.298 12.3913 3.961738 34.096672 -1.000568
2009-11-16 08:33:33 51°11.219 2°41.276 12.3912 3.96236 34.101865 -1.000568
2009-11-16 08:33:38 51°11.21 2°41.253 12.3924 3.958937 34.069006 -1.000568
2009-11-16 08:33:43 51°11.202 2°41.231 12.3924 3.960078 34.079178 -0.965744
2009-11-16 08:33:48 51°11.193 2°41.209 12.3918 3.962463 34.10208 -0.965744
2009-11-16 08:33:53 51°11.184 2°41.187 12.3923 3.962463 34.10208 -0.965744
2009-11-16 08:33:58 51°11.176 2°41.164 12.394 3.960286 34.080389 -0.965744
2009-11-16 08:34:03 51°11.167 2°41.142 12.3966 3.962463 34.101298 -1.000568
2009-11-16 08:34:08 51°11.158 2°41.119 12.395 3.961012 34.086577 -1.000568
2009-11-16 08:34:13 51°11.15 2°41.097 12.3965 3.961115 34.086792 -0.965744
2009-11-16 08:34:17 51°11.143 2°41.079 12.397 3.959871 34.074064 -0.965744
2009-11-16 08:34:23 51°11.133 2°41.052 12.398 3.959871 34.074064 -0.965744
2009-11-16 08:34:28 51°11.125 2°41.029 12.3966 3.958937 34.065104 -0.965744
2009-11-16 08:34:33 51°11.116 2°41.007 12.3972 3.960078 34.075275 -1.000568
2009-11-16 08:34:37 51°11.11 2°40.989 12.3982 3.960493 34.078476 -0.965744
2009-11-16 08:34:43 51°11.1 2°40.961 12.399 3.962049 34.092629 -0.965744
2009-11-16 08:34:48 51°11.091 2°40.939 12.4014 3.961426 34.085875 -0.965744
2009-11-16 08:34:53 51°11.083 2°40.916 12.401 3.961426 34.085875 -0.965744
2009-11-16 08:34:58 51°11.075 2°40.893 12.4019 3.962256 34.093058 -0.965744
2009-11-16 08:35:03 51°11.066 2°40.871 12.4029 3.959041 34.062198 -1.000568
2009-11-16 08:35:08 51°11.057 2°40.849 12.4031 3.961426 34.084313 -1.000568
2009-11-16 08:35:13 51°11.048 2°40.827 12.4042 3.959352 34.064404 -0.965744
2009-11-16 08:35:18 51°11.039 2°40.806 12.4032 3.961219 34.081542 -0.965744
2009-11-16 08:35:23 51°11.029 2°40.785 12.4059 3.961219 34.081542 -0.965744
2009-11-16 08:35:28 51°11.02 2°40.763 12.4051 3.962256 34.089935 -1.000568
2009-11-16 08:35:33 51°11.01 2°40.742 12.4071 3.961011 34.07799 -0.965744
2009-11-16 08:35:38 51°11.001 2°40.721 12.4081 3.959352 34.061283 -0.965744
2009-11-16 08:35:43 51°10.991 2°40.7 12.4073 3.960493 34.071452 -0.965744
2009-11-16 08:35:48 51°10.98 2°40.68 12.4075 3.96153 34.080625 -0.965744
2009-11-16 08:35:53 51°10.97 2°40.66 12.4099 3.96153 34.080625 -0.965744
2009-11-16 08:35:58 51°10.959 2°40.64 12.4099 3.95873 34.052972 -0.965744
2009-11-16 08:36:03 51°10.948 2°40.621 12.4108 3.961945 34.083045 -0.965744
2009-11-16 08:36:08 51°10.937 2°40.602 12.4116 3.962567 34.088237 -0.965744
2009-11-16 08:36:13 51°10.926 2°40.584 12.4117 3.961115 34.073522 -0.965744
2009-11-16 08:36:18 51°10.914 2°40.565 12.4128 3.962048 34.081699 -0.965744
2009-11-16 08:36:23 51°10.903 2°40.547 12.4122 3.962048 34.081699 -0.965744
2009-11-16 08:36:28 51°10.891 2°40.529 12.412 3.961426 34.075728 -0.965744
2009-11-16 08:36:33 51°10.879 2°40.51 12.4121 3.9607 34.067201 -0.965744
2009-11-16 08:36:38 51°10.868 2°40.492 12.4119 3.955411 34.016453 -0.965744
2009-11-16 08:36:43 51°10.856 2°40.474 12.4133 3.959352 34.052705 -0.965744
2009-11-16 08:36:48 51°10.844 2°40.457 12.4142 3.961322 34.070832 -0.965744
2009-11-16 08:36:53 51°10.831 2°40.441 12.4141 3.961322 34.070832 -0.965744
2009-11-16 08:36:58 51°10.819 2°40.424 12.4139 3.960908 34.066071 -1.000568
2009-11-16 08:37:03 51°10.806 2°40.408 12.4146 3.959663 34.054131 -1.000568
2009-11-16 08:37:08 51°10.794 2°40.391 12.4144 3.960078 34.058111 -0.965744
2009-11-16 08:37:13 51°10.781 2°40.376 12.414 3.961322 34.070052 -0.965744
2009-11-16 08:37:18 51°10.768 2°40.36 12.4154 3.958626 34.04418 -0.965744
2009-11-16 08:37:23 51°10.756 2°40.344 12.4141 3.958626 34.04418 -0.965744
2009-11-16 08:37:28 51°10.743 2°40.329 12.4151 3.960596 34.062306 -0.965744
2009-11-16 08:37:33 51°10.73 2°40.314 12.4143 3.959145 34.047596 -0.965744
2009-11-16 08:37:38 51°10.716 2°40.299 12.4153 3.961219 34.067497 -0.965744
2009-11-16 08:37:43 51°10.703 2°40.284 12.4165 3.960493 34.059752 -0.965744
2009-11-16 08:37:48 51°10.69 2°40.271 12.4154 3.959663 34.051792 -0.965744
2009-11-16 08:37:53 51°10.676 2°40.257 12.4154 3.959663 34.051792 -0.965744
2009-11-16 08:37:58 51°10.662 2°40.246 12.4168 3.960078 34.054992 -1.000568
2009-11-16 08:38:03 51°10.648 2°40.233 12.4172 3.959559 34.050797 -0.965744
2009-11-16 08:38:08 51°10.634 2°40.223 12.4167 3.958937 34.044048 -0.965744
2009-11-16 08:38:13 51°10.619 2°40.212 12.418 3.960078 34.054992 -0.965744
2009-11-16 08:38:18 51°10.605 2°40.202 12.4169 3.959145 34.045258 -0.965744
2009-11-16 08:38:23 51°10.59 2°40.192 12.4186 3.959145 34.045258 -0.965744
2009-11-16 08:38:28 51°10.575 2°40.182 12.4183 3.95987 34.052223 -0.965744
2009-11-16 08:38:33 51°10.561 2°40.173 12.4185 3.960285 34.056202 -0.965744
2009-11-16 08:38:37 51°10.549 2°40.166 12.4198 3.960493 34.058192 -0.965744
2009-11-16 08:38:43 51°10.531 2°40.154 12.4198 3.959352 34.046469 -0.965744
2009-11-16 08:38:48 51°10.516 2°40.145 12.4207 3.956759 34.020819 -1.000568
2009-11-16 08:38:53 51°10.501 2°40.136 12.4212 3.956759 34.020819 -1.000568
2009-11-16 08:38:58 51°10.486 2°40.127 12.4221 3.959144 34.04292 -0.965744
2009-11-16 08:39:03 51°10.471 2°40.118 12.4245 3.959974 34.050879 -0.965744
2009-11-16 08:39:08 51°10.457 2°40.109 12.4248 3.955826 34.011088 -0.965744
2009-11-16 08:39:13 51°10.442 2°40.1 12.4265 3.960078 34.051095 -0.965744
2009-11-16 08:39:18 51°10.427 2°40.09 12.4286 3.959559 34.045341 -0.965744
2009-11-16 08:39:23 51°10.412 2°40.081 12.4311 3.959559 34.045341 -0.965744
2009-11-16 08:39:28 51°10.397 2°40.072 12.4308 3.957382 34.023673 -0.965744
2009-11-16 08:39:33 51°10.382 2°40.065 12.4327 3.956967 34.018915 -0.965744
2009-11-16 08:39:37 51°10.37 2°40.06 12.4348 3.957693 34.024321 -0.965744
2009-11-16 08:39:43 51°10.352 2°40.052 12.4358 3.958315 34.02951 -0.965744
2009-11-16 08:39:48 51°10.337 2°40.047 12.4374 3.95707 34.016017 -0.965744
2009-11-16 08:39:53 51°10.321 2°40.042 12.4386 3.95707 34.016017 -0.965744
2009-11-16 08:39:58 51°10.306 2°40.038 12.4396 3.960596 34.048276 -0.965744
2009-11-16 08:40:03 51°10.291 2°40.035 12.4403 3.958626 34.0286 -0.965744
2009-11-16 08:40:08 51°10.275 2°40.032 12.4407 3.958418 34.025054 -0.965744
2009-11-16 08:40:13 51°10.26 2°40.032 12.4417 3.960596 34.04438 -0.965744
2009-11-16 08:40:18 51°10.245 2°40.031 12.4427 3.959663 34.033873 -0.965744
2009-11-16 08:40:23 51°10.229 2°40.032 12.4437 3.959663 34.033873 -0.965744
2009-11-16 08:40:28 51°10.214 2°40.034 12.4453 3.9579 34.015411 -0.965744
2009-11-16 08:40:33 51°10.198 2°40.036 12.4471 3.957589 34.01165 -0.965744
2009-11-16 08:40:38 51°10.183 2°40.038 12.4485 3.958729 34.021031 -0.965744
2009-11-16 08:40:43 51°10.169 2°40.041 12.4507 3.956552 33.999375 -0.965744
2009-11-16 08:40:48 51°10.156 2°40.044 12.4537 3.957796 34.009749 -0.965744
2009-11-16 08:40:53 51°10.144 2°40.049 12.4559 3.957796 34.009749 -0.965744
2009-11-16 08:40:58 51°10.134 2°40.055 12.4572 3.957589 34.006983 -0.965744
2009-11-16 08:41:03 51°10.125 2°40.063 12.4594 3.961218 34.040223 -0.965744
2009-11-16 08:41:08 51°10.117 2°40.071 12.4617 3.95707 33.998901 -0.965744
2009-11-16 08:41:13 51°10.111 2°40.08 12.4635 3.957692 34.002533 -0.965744
2009-11-16 08:41:17 51°10.107 2°40.088 12.4659 3.956137 33.986069 -0.965744
2009-11-16 08:41:23 51°10.101 2°40.101 12.4683 3.956137 33.986069 -0.965744
2009-11-16 08:41:28 51°10.098 2°40.111 12.4683 3.959559 34.017313 -0.965744
2009-11-16 08:41:33 51°10.094 2°40.121 12.4695 3.959144 34.011782 -0.965744
2009-11-16 08:41:38 51°10.093 2°40.131 12.4708 3.960492 34.022369 -0.965744
2009-11-16 08:41:43 51°10.091 2°40.141 12.4722 3.958211 33.998173 -0.93092
2009-11-16 08:41:48 51°10.091 2°40.151 12.4728 3.9579 33.993637 -0.965744
2009-11-16 08:41:53 51°10.091 2°40.161 12.4743 3.9579 33.993637 -0.965744
2009-11-16 08:41:58 51°10.092 2°40.17 12.4752 3.958522 33.996491 -0.965744
2009-11-16 08:42:03 51°10.092 2°40.18 12.476 3.959455 34.003101 -0.93092
2009-11-16 08:42:08 51°10.094 2°40.19 12.4767 3.959248 33.99956 -0.93092
2009-11-16 08:42:13 51°10.095 2°40.2 12.4767 3.959455 33.999993 -0.93092
2009-11-16 08:42:18 51°10.096 2°40.209 12.4778 3.959766 34.001419 -0.93092
2009-11-16 08:42:23 51°10.097 2°40.219 12.478 3.959766 34.001419 -0.93092
2009-11-16 08:42:28 51°10.097 2°40.228 12.4786 3.95904 33.992912 -0.93092
2009-11-16 08:42:33 51°10.097 2°40.237 12.4783 3.958625 33.987385 -0.93092
2009-11-16 08:42:38 51°10.096 2°40.245 12.4793 3.965055 34.047422 -0.93092
2009-11-16 08:42:43 51°10.095 2°40.253 12.4786 3.965366 34.049624 -0.93092
2009-11-16 08:42:48 51°10.094 2°40.26 12.4794 3.965573 34.050055 -0.93092
2009-11-16 08:42:53 51°10.091 2°40.266 12.4797 3.965573 34.050055 -0.93092
2009-11-16 08:42:58 51°10.089 2°40.272 12.4788 3.965781 34.051264 -0.93092
2009-11-16 08:43:03 51°10.086 2°40.278 12.4796 3.965988 34.051695 -0.93092
2009-11-16 08:43:08 51°10.084 2°40.284 12.4798 3.966092 34.051911 -0.965744
2009-11-16 08:43:13 51°10.081 2°40.289 12.4798 3.966299 34.053898 -0.93092
2009-11-16 08:43:17 51°10.079 2°40.292 12.4799 3.966507 34.055885 -0.93092
2009-11-16 08:43:23 51°10.075 2°40.297 12.4796 3.966507 34.055885 -0.93092
2009-11-16 08:43:28 51°10.071 2°40.301 12.4802 3.966714 34.057871 -0.93092
2009-11-16 08:43:33 51°10.068 2°40.305 12.4808 3.966818 34.058865 -0.93092
2009-11-16 08:43:38 51°10.065 2°40.307 12.4805 3.966922 34.059858 -0.93092
2009-11-16 08:43:43 51°10.061 2°40.31 12.4792 3.967129 34.061845 -0.93092
2009-11-16 08:43:48 51°10.057 2°40.311 12.4795 3.967233 34.062061 -0.93092
2009-11-16 08:43:53 51°10.053 2°40.312 12.4803 3.967233 34.062061 -0.93092
2009-11-16 08:43:57 51°10.051 2°40.313 12.4793 3.967233 34.062061 -0.93092
2009-11-16 08:44:03 51°10.046 2°40.313 12.4793 3.967336 34.063054 -0.93092
2009-11-16 08:44:08 51°10.043 2°40.313 12.48 3.967336 34.063054 -0.93092
2009-11-16 08:44:13 51°10.039 2°40.313 12.4798 3.96744 34.064047 -0.93092
2009-11-16 08:44:18 51°10.035 2°40.311 12.4801 3.96744 34.064047 -0.93092
2009-11-16 08:44:23 51°10.032 2°40.31 12.4799 3.96744 34.064047 -0.93092
2009-11-16 08:44:28 51°10.028 2°40.308 12.4795 3.967544 34.065041 -0.93092
2009-11-16 08:44:33 51°10.025 2°40.305 12.4804 3.967544 34.065819 -0.93092
2009-11-16 08:44:38 51°10.021 2°40.302 12.4789 3.967647 34.066813 -0.93092
2009-11-16 08:44:43 51°10.018 2°40.298 12.4793 3.967647 34.066813 -0.93092
2009-11-16 08:44:48 51°10.015 2°40.294 12.4788 3.967647 34.066034 -0.93092
2009-11-16 08:44:53 51°10.013 2°40.29 12.4765 3.967647 34.066034 -0.93092
2009-11-16 08:44:58 51°10.011 2°40.286 12.4756 3.967751 34.067806 -0.93092
2009-11-16 08:45:03 51°10.009 2°40.282 12.4763 3.967751 34.067806 -0.93092
2009-11-16 08:45:08 51°10.007 2°40.278 12.4753 3.967751 34.067806 -0.93092
2009-11-16 08:45:13 51°10.005 2°40.274 12.4762 3.967751 34.067806 -0.93092
2009-11-16 08:45:18 51°10.004 2°40.27 12.4755 3.967751 34.068584 -0.93092
2009-11-16 08:45:23 51°10.003 2°40.266 12.4751 3.967751 34.068584 -0.93092
2009-11-16 08:45:28 51°10.002 2°40.262 12.4755 3.967751 34.069363 -0.93092
2009-11-16 08:45:33 51°10.002 2°40.259 12.476 3.967751 34.070141 -0.93092
2009-11-16 08:45:37 51°10.001 2°40.256 12.4766 3.967751 34.07092 -0.93092
2009-11-16 08:45:43 51°10.001 2°40.253 12.4765 3.967751 34.071698 -0.93092
2009-11-16 08:45:48 51°10.001 2°40.25 12.4761 3.967751 34.071698 -0.93092
2009-11-16 08:45:53 51°10.001 2°40.247 12.4755 3.967751 34.071698 -0.93092
2009-11-16 08:45:58 51°10.001 2°40.245 12.4773 3.967751 34.071698 -0.93092
2009-11-16 08:46:03 51°10.001 2°40.244 12.4756 3.967648 34.071483 -0.93092
2009-11-16 08:46:08 51°10.001 2°40.242 12.4758 3.967648 34.071483 -0.93092
2009-11-16 08:46:13 51°10.001 2°40.241 12.4763 3.967751 34.071698 -0.93092
2009-11-16 08:46:18 51°10.001 2°40.24 12.4755 3.967751 34.071698 -0.93092
2009-11-16 08:46:23 51°10.001 2°40.24 12.4758 3.967751 34.071698 -0.93092
2009-11-16 08:46:28 51°10.002 2°40.239 12.476 3.967751 34.072477 -0.93092
2009-11-16 08:46:33 51°10.002 2°40.239 12.4774 3.967751 34.071698 -0.93092
2009-11-16 08:46:38 51°10.002 2°40.238 12.4778 3.967751 34.071698 -0.93092
2009-11-16 08:46:43 51°10.002 2°40.237 12.477 3.967751 34.071698 -0.93092
2009-11-16 08:46:48 51°10.003 2°40.236 12.4771 3.967751 34.071698 -0.93092
2009-11-16 08:46:53 51°10.003 2°40.236 12.4768 3.967751 34.071698 -0.93092
2009-11-16 08:46:58 51°10.004 2°40.235 12.4771 3.967751 34.071698 -0.93092
2009-11-16 08:47:03 51°10.004 2°40.234 12.4763 3.967751 34.071698 -0.93092
2009-11-16 08:47:09 51°10.004 2°40.233 12.4748 3.967751 34.071698 -0.93092
2009-11-16 08:47:14 51°10.005 2°40.232 12.4757 3.967855 34.071913 -0.93092
2009-11-16 08:47:20 51°10.005 2°40.231 12.4757 3.967855 34.071913 -0.93092
2009-11-16 08:47:25 51°10.005 2°40.23 12.4753 3.967855 34.071913 -0.93092
2009-11-16 08:47:30 51°10.006 2°40.229 12.4757 3.967855 34.071913 -0.93092
2009-11-16 08:47:36 51°10.006 2°40.227 12.4759 3.967855 34.071913 -0.93092
2009-11-16 08:47:40 51°10.007 2°40.227 12.475 3.967855 34.071913 -0.93092
2009-11-16 08:47:45 51°10.007 2°40.226 12.4758 3.967751 34.072477 -0.93092
2009-11-16 08:47:50 51°10.008 2°40.225 12.4759 3.967751 34.072477 -0.93092
2009-11-16 08:47:55 51°10.008 2°40.224 12.4772 3.967751 34.072477 -0.93092
2009-11-16 08:48:00 51°10.008 2°40.223 12.4754 3.967751 34.072477 -0.93092
2009-11-16 08:48:05 51°10.008 2°40.222 12.4757 3.967751 34.072477 -0.93092
2009-11-16 08:48:09 51°10.009 2°40.222 12.4757 3.967751 34.072477 -0.896096
2009-11-16 08:48:14 51°10.009 2°40.221 12.4759 3.967751 34.072477 -0.93092
2009-11-16 08:48:19 51°10.01 2°40.22 12.4782 3.967751 34.072477 -0.93092
2009-11-16 08:48:24 51°10.01 2°40.219 12.4765 3.967751 34.072477 -0.93092
2009-11-16 08:48:29 51°10.01 2°40.218 12.4769 3.967855 34.07347 -0.93092
2009-11-16 08:48:33 51°10.011 2°40.217 12.4762 3.967751 34.072477 -0.93092
2009-11-16 08:48:38 51°10.011 2°40.216 12.4757 3.967751 34.072477 -0.93092
2009-11-16 08:48:43 51°10.012 2°40.215 12.4772 3.967751 34.072477 -0.93092
2009-11-16 08:48:48 51°10.012 2°40.214 12.4774 3.967751 34.072477 -0.93092
2009-11-16 08:48:53 51°10.012 2°40.213 12.4771 3.967751 34.072477 -0.93092
2009-11-16 08:48:58 51°10.013 2°40.212 12.4774 3.967855 34.072692 -0.896096
2009-11-16 08:49:03 51°10.013 2°40.212 12.4771 3.967855 34.072692 -0.93092
2009-11-16 08:49:08 51°10.014 2°40.211 12.4789 3.967855 34.072692 -0.93092
2009-11-16 08:49:13 51°10.014 2°40.21 12.4764 3.967855 34.07347 -0.93092
2009-11-16 08:49:18 51°10.014 2°40.209 12.4772 3.967855 34.072692 -0.93092
2009-11-16 08:49:23 51°10.015 2°40.208 12.4766 3.967855 34.072692 -0.93092
2009-11-16 08:49:28 51°10.015 2°40.207 12.4757 3.967855 34.072692 -0.93092
2009-11-16 08:49:33 51°10.016 2°40.206 12.4764 3.967855 34.072692 -0.93092
2009-11-16 08:49:38 51°10.016 2°40.205 12.4769 3.967855 34.072692 -0.93092
2009-11-16 08:49:43 51°10.017 2°40.204 12.4768 3.967959 34.072907 -0.93092
2009-11-16 08:49:48 51°10.017 2°40.203 12.476 3.967959 34.072907 -0.93092
2009-11-16 08:49:53 51°10.017 2°40.202 12.4774 3.967959 34.072907 -0.93092
2009-11-16 08:49:57 51°10.018 2°40.202 12.4763 3.967959 34.072907 -0.93092
2009-11-16 08:50:03 51°10.018 2°40.2 12.4767 3.967855 34.072692 -0.896096
2009-11-16 08:50:08 51°10.019 2°40.2 12.4765 3.967855 34.072692 -0.93092
2009-11-16 08:50:13 51°10.019 2°40.199 12.4757 3.967855 34.072692 -0.93092
2009-11-16 08:50:17 51°10.019 2°40.198 12.4757 3.967855 34.072692 -0.93092
2009-11-16 08:50:23 51°10.02 2°40.197 12.4781 3.967855 34.072692 -0.93092
2009-11-16 08:50:28 51°10.02 2°40.196 12.4763 3.967855 34.072692 -0.93092
2009-11-16 08:50:33 51°10.021 2°40.195 12.4774 3.967855 34.072692 -0.93092
2009-11-16 08:50:38 51°10.021 2°40.194 12.4772 3.967855 34.07347 -0.93092
2009-11-16 08:50:43 51°10.021 2°40.193 12.4774 3.967855 34.07347 -0.93092
2009-11-16 08:50:48 51°10.022 2°40.192 12.4765 3.967855 34.07347 -0.93092
2009-11-16 08:50:53 51°10.022 2°40.191 12.4759 3.967855 34.07347 -0.93092
2009-11-16 08:50:58 51°10.022 2°40.191 12.4751 3.967855 34.07347 -0.93092
2009-11-16 08:51:03 51°10.023 2°40.19 12.4765 3.967855 34.072692 -0.93092
2009-11-16 08:51:08 51°10.023 2°40.189 12.4769 3.967855 34.072692 -0.93092
2009-11-16 08:51:13 51°10.024 2°40.188 12.4773 3.967959 34.073685 -0.93092
2009-11-16 08:51:18 51°10.024 2°40.187 12.4781 3.967959 34.072907 -0.93092
2009-11-16 08:51:23 51°10.024 2°40.186 12.4763 3.967959 34.072907 -0.93092
2009-11-16 08:51:28 51°10.025 2°40.185 12.4807 3.967959 34.073685 -0.93092
2009-11-16 08:51:33 51°10.025 2°40.185 12.481 3.967855 34.072692 -0.93092
2009-11-16 08:51:38 51°10.026 2°40.184 12.4816 3.967855 34.07347 -0.93092
2009-11-16 08:51:43 51°10.026 2°40.183 12.479 3.967959 34.074464 -0.93092
2009-11-16 08:51:48 51°10.026 2°40.182 12.482 3.967959 34.073685 -0.93092
2009-11-16 08:51:53 51°10.027 2°40.181 12.4782 3.967959 34.073685 -0.93092
2009-11-16 08:51:58 51°10.027 2°40.18 12.4789 3.967959 34.073685 -0.93092
2009-11-16 08:52:03 51°10.027 2°40.18 12.4802 3.967959 34.072907 -0.93092
2009-11-16 08:52:08 51°10.028 2°40.179 12.4785 3.968062 34.073122 -0.93092
2009-11-16 08:52:13 51°10.028 2°40.178 12.4796 3.968166 34.073337 -0.965744
2009-11-16 08:52:17 51°10.029 2°40.177 12.4818 3.968166 34.073337 -0.93092
2009-11-16 08:52:23 51°10.029 2°40.176 12.476 3.968166 34.073337 -0.93092
2009-11-16 08:52:28 51°10.029 2°40.176 12.4771 3.968166 34.073337 -0.965744
2009-11-16 08:52:33 51°10.03 2°40.175 12.4812 3.968166 34.073337 -0.93092
2009-11-16 08:52:38 51°10.03 2°40.174 12.4893 3.968166 34.073337 -0.93092
2009-11-16 08:52:43 51°10.031 2°40.173 12.4935 3.968166 34.072558 -0.93092
2009-11-16 08:52:48 51°10.031 2°40.173 12.5076 3.968373 34.072989 -0.896096
2009-11-16 08:52:53 51°10.032 2°40.172 12.5069 3.968373 34.072989 -0.896096
2009-11-16 08:52:58 51°10.032 2°40.171 12.5242 3.968581 34.071084 -0.826448
2009-11-16 08:53:03 51°10.032 2°40.171 12.5252 3.968788 34.071514 -0.896096
2009-11-16 08:53:08 51°10.033 2°40.17 12.5349 3.968892 34.070173 -0.93092
2009-11-16 08:53:13 51°10.033 2°40.169 12.5347 3.968581 34.064081 -0.93092
2009-11-16 08:53:18 51°10.034 2°40.169 12.541 3.968166 34.055442 -0.93092
2009-11-16 08:53:23 51°10.034 2°40.168 12.5461 3.968166 34.055442 -0.93092
2009-11-16 08:53:28 51°10.035 2°40.168 12.5523 3.967855 34.046244 -0.93092
2009-11-16 08:53:33 51°10.035 2°40.167 12.5636 3.967647 34.038042 -0.93092
2009-11-16 08:53:38 51°10.036 2°40.166 12.5575 3.967647 34.030275 -0.93092
2009-11-16 08:53:43 51°10.036 2°40.166 12.5696 3.967854 34.025273 -0.896096
2009-11-16 08:53:48 51°10.037 2°40.165 12.5899 3.968269 34.023033 -0.93092
2009-11-16 08:53:53 51°10.038 2°40.165 12.5961 3.968269 34.023033 -0.93092
2009-11-16 08:53:58 51°10.038 2°40.164 12.6277 3.968787 34.023337 -0.93092
2009-11-16 08:54:03 51°10.039 2°40.164 12.6098 3.969306 34.023641 -0.93092
2009-11-16 08:54:08 51°10.039 2°40.163 12.6004 3.970343 34.026577 -0.93092
2009-11-16 08:54:13 51°10.039 2°40.163 12.5896 3.971276 34.029297 -0.93092
2009-11-16 08:54:17 51°10.04 2°40.162 12.6002 3.972313 34.033007 -0.93092
2009-11-16 08:54:23 51°10.04 2°40.162 12.5816 3.972313 34.033007 -0.93092
2009-11-16 08:54:28 51°10.041 2°40.161 12.5963 3.973557 34.037148 -0.93092
2009-11-16 08:54:33 51°10.041 2°40.161 12.5838 3.974905 34.037628 -0.896096
2009-11-16 08:54:38 51°10.042 2°40.16 12.5649 3.97615 34.042542 -0.93092
2009-11-16 08:54:43 51°10.042 2°40.16 12.5611 3.976979 34.047368 -0.896096
2009-11-16 08:54:48 51°10.043 2°40.159 12.5536 3.977498 34.050771 -0.93092
2009-11-16 08:54:53 51°10.043 2°40.159 12.5482 3.977498 34.050771 -0.93092
2009-11-16 08:54:57 51°10.044 2°40.158 12.5404 3.978017 34.0565 -0.896096
2009-11-16 08:55:03 51°10.044 2°40.158 12.543 3.97812 34.059041 -0.896096
2009-11-16 08:55:08 51°10.045 2°40.157 12.5468 3.97812 34.062142 -0.93092
2009-11-16 08:55:13 51°10.046 2°40.157 12.5337 3.978017 34.066581 -0.896096
2009-11-16 08:55:18 51°10.046 2°40.156 12.5366 3.977498 34.068607 -0.93092
2009-11-16 08:55:23 51°10.047 2°40.156 12.5321 3.977498 34.068607 -0.93092
2009-11-16 08:55:28 51°10.047 2°40.155 12.5334 3.977187 34.072618 -0.93092
2009-11-16 08:55:33 51°10.047 2°40.155 12.5325 3.976669 34.073871 -0.93092
2009-11-16 08:55:38 51°10.048 2°40.154 12.52 3.976254 34.074564 -0.93092
2009-11-16 08:55:43 51°10.048 2°40.154 12.5289 3.975839 34.073703 -0.93092
2009-11-16 08:55:48 51°10.049 2°40.153 12.5254 3.975424 34.074396 -0.93092
2009-11-16 08:55:53 51°10.049 2°40.153 12.5156 3.975424 34.074396 -0.93092
2009-11-16 08:55:58 51°10.05 2°40.152 12.5187 3.975113 34.074528 -0.93092
2009-11-16 08:56:03 51°10.05 2°40.152 12.512 3.974802 34.074659 -0.93092
2009-11-16 08:56:08 51°10.051 2°40.152 12.5177 3.974699 34.075221 -0.93092
2009-11-16 08:56:13 51°10.051 2°40.151 12.5154 3.974491 34.075568 -0.93092
2009-11-16 08:56:18 51°10.052 2°40.151 12.5086 3.974076 34.074708 -0.93092
2009-11-16 08:56:23 51°10.052 2°40.15 12.5084 3.974076 34.074708 -0.93092
2009-11-16 08:56:28 51°10.053 2°40.15 12.5093 3.973869 34.075055 -0.93092
2009-11-16 08:56:33 51°10.053 2°40.149 12.5047 3.973662 34.076179 -0.93092
2009-11-16 08:56:38 51°10.053 2°40.149 12.5028 3.973351 34.076311 -0.93092
2009-11-16 08:56:43 51°10.054 2°40.149 12.5045 3.973143 34.075881 -0.93092
2009-11-16 08:56:48 51°10.054 2°40.148 12.5014 3.97304 34.076443 -0.93092
2009-11-16 08:56:53 51°10.055 2°40.148 12.5049 3.97304 34.076443 -0.93092
2009-11-16 08:56:58 51°10.055 2°40.148 12.5016 3.972832 34.076013 -0.93092
2009-11-16 08:57:03 51°10.056 2°40.147 12.5032 3.972625 34.07636 -0.93092
2009-11-16 08:57:08 51°10.056 2°40.147 12.5042 3.972521 34.076923 -0.93092
2009-11-16 08:57:13 51°10.057 2°40.146 12.5017 3.972417 34.076708 -0.93092
2009-11-16 08:57:18 51°10.057 2°40.146 12.5053 3.972314 34.076493 -0.896096
2009-11-16 08:57:23 51°10.058 2°40.146 12.4992 3.972314 34.076493 -0.896096
2009-11-16 08:57:28 51°10.058 2°40.146 12.5004 3.97221 34.077055 -0.93092
2009-11-16 08:57:33 51°10.058 2°40.145 12.5014 3.972106 34.07684 -0.93092
2009-11-16 08:57:38 51°10.059 2°40.145 12.4998 3.972003 34.075848 -0.93092
2009-11-16 08:57:43 51°10.059 2°40.145 12.4993 3.972003 34.076625 -0.93092
2009-11-16 08:57:48 51°10.06 2°40.144 12.5002 3.971899 34.07641 -0.896096
2009-11-16 08:57:53 51°10.06 2°40.144 12.4988 3.971899 34.07641 -0.896096
2009-11-16 08:57:58 51°10.061 2°40.144 12.4977 3.971899 34.07641 -0.896096
2009-11-16 08:58:03 51°10.061 2°40.143 12.4971 3.971899 34.077188 -0.896096
2009-11-16 08:58:08 51°10.061 2°40.143 12.4969 3.971795 34.076195 -0.93092
2009-11-16 08:58:13 51°10.062 2°40.143 12.4973 3.971795 34.076973 -0.93092
2009-11-16 08:58:18 51°10.062 2°40.142 12.4964 3.971692 34.076758 -0.93092
2009-11-16 08:58:23 51°10.063 2°40.142 12.4968 3.971692 34.076758 -0.93092
2009-11-16 08:58:28 51°10.063 2°40.142 12.497 3.971692 34.076758 -0.93092
2009-11-16 08:58:33 51°10.063 2°40.142 12.4954 3.971588 34.076543 -0.896096
2009-11-16 08:58:38 51°10.064 2°40.141 12.4948 3.971588 34.076543 -0.93092
2009-11-16 08:58:43 51°10.064 2°40.141 12.4953 3.971588 34.077321 -0.896096
2009-11-16 08:58:48 51°10.065 2°40.141 12.4933 3.971484 34.076328 -0.896096
2009-11-16 08:58:53 51°10.065 2°40.14 12.4928 3.971484 34.076328 -0.896096
2009-11-16 08:58:57 51°10.065 2°40.14 12.4945 3.971484 34.076328 -0.93092
2009-11-16 08:59:03 51°10.066 2°40.14 12.4943 3.971484 34.077106 -0.93092
2009-11-16 08:59:08 51°10.067 2°40.139 12.4937 3.971484 34.077884 -0.896096
2009-11-16 08:59:13 51°10.067 2°40.139 12.4953 3.97138 34.076891 -0.93092
2009-11-16 08:59:18 51°10.068 2°40.139 12.4949 3.971381 34.077669 -0.93092
2009-11-16 08:59:23 51°10.068 2°40.138 12.4937 3.971381 34.077669 -0.93092
2009-11-16 08:59:28 51°10.068 2°40.138 12.4951 3.971381 34.077669 -0.93092
2009-11-16 08:59:33 51°10.069 2°40.138 12.4953 3.971277 34.076676 -0.896096
2009-11-16 08:59:38 51°10.069 2°40.137 12.4955 3.971277 34.076676 -0.93092
2009-11-16 08:59:43 51°10.07 2°40.137 12.4946 3.971173 34.075683 -0.93092
2009-11-16 08:59:48 51°10.07 2°40.137 12.495 3.971173 34.075683 -0.896096
2009-11-16 08:59:53 51°10.071 2°40.136 12.495 3.971173 34.075683 -0.896096
2009-11-16 08:59:58 51°10.071 2°40.136 12.4944 3.971173 34.075683 -0.93092
2009-11-16 09:00:03 51°10.072 2°40.136 12.4955 3.971173 34.076461 -0.93092
2009-11-16 09:00:08 51°10.073 2°40.135 12.4957 3.971069 34.075468 -0.93092